Wetterdaten: Sonntag, 29.11.2015
Datum Zeit Temp. Aussen Temp. o. S. +5cm Feuchte Auss BlattFeu 1 Luftdruck Regen Sonnenschein Regendauer Solar Windben Empfang
29.11.2015 00:00 6,8 C 5,6 C 4,4 C 88 % 15 lf 1009,4 hPa 0,0 l/m 0 min 2 min 0 W/m 46,0 km/h (6 Bft) 97,87 %
29.11.2015 00:02 6,8 C 5,6 C 4,4 C 88 % 15 lf 1009,3 hPa 0,0 l/m 0 min 2 min 0 W/m 16,7 km/h (3 Bft) 8,33 %
29.11.2015 00:06 6,6 C 5,6 C 4,4 C 88 % 15 lf 1009,3 hPa 0,2 l/m 0 min 2 min 0 W/m 37,7 km/h (5 Bft) 86,11 %
29.11.2015 00:08 6,6 C 5,6 C 4,4 C 89 % 15 lf 1009,2 hPa 0,0 l/m 0 min 2 min 0 W/m 46,0 km/h (6 Bft) 97,87 %
29.11.2015 00:10 6,5 C 5,6 C 4,4 C 89 % 15 lf 1009,2 hPa 0,0 l/m 0 min 2 min 0 W/m 43,9 km/h (6 Bft) 93,48 %
29.11.2015 00:12 6,5 C 5,6 C 4,4 C 89 % 15 lf 1009,3 hPa 0,2 l/m 0 min 2 min 0 W/m 43,9 km/h (6 Bft) 93,62 %
29.11.2015 00:14 6,5 C 5,6 C 4,4 C 89 % 15 lf 1009,2 hPa 0,0 l/m 0 min 2 min 0 W/m 46,0 km/h (6 Bft) 93,62 %
29.11.2015 00:16 6,4 C 5,6 C 4,4 C 90 % 15 lf 1009,2 hPa 0,0 l/m 0 min 2 min 0 W/m 43,9 km/h (6 Bft) 97,87 %
29.11.2015 00:18 6,4 C 5,6 C 4,4 C 90 % 15 lf 1009,3 hPa 0,2 l/m 0 min 2 min 0 W/m 60,7 km/h (7 Bft) 89,36 %
29.11.2015 00:20 6,4 C 5,6 C 4,4 C 90 % 15 lf 1009,3 hPa 0,0 l/m 0 min 2 min 0 W/m 35,6 km/h (5 Bft) 93,62 %
29.11.2015 00:22 6,4 C 5,6 C 4,4 C 90 % 15 lf 1009,2 hPa 0,2 l/m 0 min 2 min 0 W/m 31,4 km/h (5 Bft) 93,48 %
29.11.2015 00:24 6,4 C 5,6 C 4,4 C 90 % 15 lf 1009,2 hPa 0,0 l/m 0 min 2 min 0 W/m 35,6 km/h (5 Bft) 95,74 %
29.11.2015 00:26 6,4 C 5,6 C 4,4 C 91 % 15 lf 1009,1 hPa 0,0 l/m 0 min 2 min 0 W/m 35,6 km/h (5 Bft) 95,74 %
29.11.2015 00:28 6,4 C 5,6 C 4,4 C 91 % 15 lf 1009,1 hPa 0,2 l/m 0 min 2 min 0 W/m 37,7 km/h (5 Bft) 95,74 %
29.11.2015 00:30 6,4 C 5,6 C 4,4 C 91 % 15 lf 1009,0 hPa 0,0 l/m 0 min 2 min 0 W/m 37,7 km/h (5 Bft) 93,62 %
29.11.2015 00:32 6,4 C 5,6 C 4,4 C 91 % 15 lf 1009,1 hPa 0,0 l/m 0 min 2 min 0 W/m 39,7 km/h (6 Bft) 93,62 %
29.11.2015 00:34 6,3 C 5,6 C 4,4 C 91 % 15 lf 1009,1 hPa 0,0 l/m 0 min 2 min 0 W/m 39,7 km/h (6 Bft) 93,48 %
29.11.2015 00:36 6,3 C 5,6 C 4,4 C 91 % 15 lf 1009,0 hPa 0,0 l/m 0 min 2 min 0 W/m 35,6 km/h (5 Bft) 91,49 %
29.11.2015 00:38 6,3 C 5,6 C 4,4 C 91 % 15 lf 1009,1 hPa 0,0 l/m 0 min 2 min 0 W/m 46,0 km/h (6 Bft) 93,62 %
29.11.2015 00:40 6,3 C 5,6 C 4,4 C 92 % 15 lf 1009,0 hPa 0,0 l/m 0 min 2 min 0 W/m 48,1 km/h (6 Bft) 93,62 %
29.11.2015 00:42 6,3 C 5,6 C 4,4 C 92 % 15 lf 1008,9 hPa 0,0 l/m 0 min 2 min 0 W/m 43,9 km/h (6 Bft) 95,74 %
29.11.2015 00:44 6,3 C 5,6 C 4,4 C 92 % 15 lf 1008,9 hPa 0,0 l/m 0 min 2 min 0 W/m 43,9 km/h (6 Bft) 95,74 %
29.11.2015 00:46 6,3 C 5,6 C 4,4 C 92 % 15 lf 1008,9 hPa 0,2 l/m 0 min 2 min 0 W/m 33,5 km/h (5 Bft) 95,65 %
29.11.2015 00:48 6,3 C 5,6 C 4,4 C 92 % 15 lf 1008,9 hPa 0,0 l/m 0 min 2 min 0 W/m 29,3 km/h (5 Bft) 100,00 %
29.11.2015 00:50 6,3 C 5,6 C 4,4 C 92 % 15 lf 1008,9 hPa 0,0 l/m 0 min 2 min 0 W/m 31,4 km/h (5 Bft) 100,00 %
29.11.2015 00:52 6,3 C 5,6 C 4,4 C 92 % 15 lf 1008,8 hPa 0,0 l/m 0 min 2 min 0 W/m 35,6 km/h (5 Bft) 93,62 %
29.11.2015 00:54 6,3 C 5,6 C 4,4 C 92 % 15 lf 1008,9 hPa 0,0 l/m 0 min 2 min 0 W/m 50,2 km/h (7 Bft) 100,00 %
29.11.2015 00:56 6,3 C 5,6 C 4,4 C 92 % 15 lf 1008,8 hPa 0,0 l/m 0 min 2 min 0 W/m 41,8 km/h (6 Bft) 100,00 %
29.11.2015 00:58 6,3 C 5,6 C 4,4 C 92 % 15 lf 1008,8 hPa 0,0 l/m 0 min 2 min 0 W/m 37,7 km/h (5 Bft) 97,83 %
29.11.2015 01:00 6,3 C 5,6 C 4,4 C 92 % 15 lf 1008,8 hPa 0,0 l/m 0 min 2 min 0 W/m 43,9 km/h (6 Bft) 100,00 %
29.11.2015 01:02 6,3 C 5,6 C 4,4 C 93 % 15 lf 1008,7 hPa 0,0 l/m 0 min 2 min 0 W/m 48,1 km/h (6 Bft) 100,00 %
29.11.2015 01:04 6,3 C 5,6 C 4,4 C 93 % 15 lf 1008,8 hPa 0,0 l/m 0 min 2 min 0 W/m 31,4 km/h (5 Bft) 97,83 %
29.11.2015 01:06 6,3 C 5,6 C 4,4 C 93 % 15 lf 1008,8 hPa 0,0 l/m 0 min 2 min 0 W/m 48,1 km/h (6 Bft) 100,00 %
29.11.2015 01:08 6,3 C 5,6 C 4,4 C 93 % 15 lf 1008,7 hPa 0,0 l/m 0 min 2 min 0 W/m 35,6 km/h (5 Bft) 97,87 %
29.11.2015 01:10 6,3 C 5,6 C 4,4 C 93 % 15 lf 1008,8 hPa 0,0 l/m 0 min 2 min 0 W/m 50,2 km/h (7 Bft) 97,83 %
29.11.2015 01:12 6,3 C 5,6 C 4,4 C 93 % 15 lf 1008,7 hPa 0,0 l/m 0 min 2 min 0 W/m 43,9 km/h (6 Bft) 100,00 %
29.11.2015 01:14 6,3 C 5,6 C 4,4 C 93 % 15 lf 1008,8 hPa 0,0 l/m 0 min 2 min 0 W/m 35,6 km/h (5 Bft) 95,74 %
29.11.2015 01:16 6,3 C 5,6 C 4,4 C 93 % 15 lf 1008,7 hPa 0,2 l/m 0 min 2 min 0 W/m 46,0 km/h (6 Bft) 97,87 %
29.11.2015 01:18 6,3 C 5,6 C 4,4 C 93 % 15 lf 1008,7 hPa 0,0 l/m 0 min 2 min 0 W/m 39,7 km/h (6 Bft) 97,87 %
29.11.2015 01:20 6,3 C 5,6 C 4,4 C 93 % 15 lf 1008,8 hPa 0,0 l/m 0 min 2 min 0 W/m 29,3 km/h (5 Bft) 95,65 %
29.11.2015 01:22 6,3 C 5,6 C 4,4 C 93 % 15 lf 1008,5 hPa 0,0 l/m 0 min 2 min 0 W/m 46,0 km/h (6 Bft) 97,87 %
29.11.2015 01:24 6,3 C 5,6 C 4,4 C 93 % 15 lf 1008,6 hPa 0,0 l/m 0 min 2 min 0 W/m 29,3 km/h (5 Bft) 97,87 %
29.11.2015 01:26 6,3 C 5,6 C 4,4 C 93 % 15 lf 1008,6 hPa 0,0 l/m 0 min 2 min 0 W/m 31,4 km/h (5 Bft) 97,87 %
29.11.2015 01:28 6,3 C 5,6 C 4,4 C 93 % 15 lf 1008,6 hPa 0,0 l/m 0 min 2 min 0 W/m 37,7 km/h (5 Bft) 97,87 %
29.11.2015 01:30 6,3 C 5,6 C 4,4 C 93 % 15 lf 1008,8 hPa 0,0 l/m 0 min 2 min 0 W/m 31,4 km/h (5 Bft) 97,87 %
29.11.2015 01:32 6,3 C 5,6 C 4,4 C 93 % 15 lf 1008,6 hPa 0,0 l/m 0 min 2 min 0 W/m 50,2 km/h (7 Bft) 91,30 %
29.11.2015 01:34 6,3 C 5,6 C 4,4 C 93 % 15 lf 1008,6 hPa 0,0 l/m 0 min 2 min 0 W/m 31,4 km/h (5 Bft) 93,62 %
29.11.2015 01:36 6,3 C 5,6 C 4,4 C 93 % 15 lf 1008,6 hPa 0,0 l/m 0 min 2 min 0 W/m 39,7 km/h (6 Bft) 97,87 %
29.11.2015 01:38 6,3 C 5,6 C 4,4 C 93 % 15 lf 1008,6 hPa 0,0 l/m 0 min 2 min 0 W/m 39,7 km/h (6 Bft) 97,87 %
29.11.2015 01:40 6,3 C 5,6 C 4,4 C 93 % 15 lf 1008,6 hPa 0,2 l/m 0 min 2 min 0 W/m 41,8 km/h (6 Bft) 100,00 %
29.11.2015 01:42 6,3 C 5,6 C 4,4 C 93 % 15 lf 1008,5 hPa 0,0 l/m 0 min 2 min 0 W/m 29,3 km/h (5 Bft) 97,87 %
29.11.2015 01:44 6,3 C 5,6 C 4,4 C 93 % 15 lf 1008,5 hPa 0,0 l/m 0 min 2 min 0 W/m 37,7 km/h (5 Bft) 95,65 %
29.11.2015 01:46 6,3 C 5,6 C 4,4 C 93 % 15 lf 1008,5 hPa 0,0 l/m 0 min 2 min 0 W/m 29,3 km/h (5 Bft) 97,87 %
29.11.2015 01:48 6,3 C 5,6 C 4,4 C 93 % 15 lf 1008,6 hPa 0,0 l/m 0 min 2 min 0 W/m 35,6 km/h (5 Bft) 93,62 %
29.11.2015 01:50 6,3 C 5,6 C 4,4 C 93 % 15 lf 1008,4 hPa 0,0 l/m 0 min 2 min 0 W/m 39,7 km/h (6 Bft) 97,87 %
29.11.2015 01:52 6,3 C 6,1 C 4,4 C 93 % 15 lf 1008,5 hPa 0,0 l/m 0 min 2 min 0 W/m 35,6 km/h (5 Bft) 97,87 %
29.11.2015 01:54 6,3 C 6,1 C 4,4 C 93 % 15 lf 1008,5 hPa 0,2 l/m 0 min 2 min 0 W/m 41,8 km/h (6 Bft) 95,74 %
29.11.2015 01:56 6,3 C 6,1 C 4,4 C 94 % 15 lf 1008,5 hPa 0,0 l/m 0 min 2 min 0 W/m 46,0 km/h (6 Bft) 91,30 %
29.11.2015 01:58 6,3 C 6,1 C 4,4 C 94 % 15 lf 1008,4 hPa 0,0 l/m 0 min 2 min 0 W/m 41,8 km/h (6 Bft) 95,74 %
29.11.2015 02:00 6,4 C 6,1 C 4,4 C 94 % 15 lf 1008,5 hPa 0,0 l/m 0 min 2 min 0 W/m 43,9 km/h (6 Bft) 91,49 %
29.11.2015 02:02 6,4 C 6,1 C 4,4 C 94 % 15 lf 1008,4 hPa 0,0 l/m 0 min 2 min 0 W/m 31,4 km/h (5 Bft) 95,74 %
29.11.2015 02:04 6,4 C 6,1 C 4,4 C 94 % 15 lf 1008,4 hPa 0,0 l/m 0 min 2 min 0 W/m 31,4 km/h (5 Bft) 93,62 %
29.11.2015 02:06 6,4 C 6,1 C 4,4 C 94 % 15 lf 1008,4 hPa 0,0 l/m 0 min 2 min 0 W/m 37,7 km/h (5 Bft) 91,49 %
29.11.2015 02:08 6,4 C 6,1 C 4,4 C 94 % 15 lf 1008,3 hPa 0,0 l/m 0 min 2 min 0 W/m 39,7 km/h (6 Bft) 93,48 %
29.11.2015 02:10 6,4 C 6,1 C 4,4 C 94 % 15 lf 1008,4 hPa 0,2 l/m 0 min 2 min 0 W/m 48,1 km/h (6 Bft) 93,62 %
29.11.2015 02:12 6,4 C 6,1 C 4,4 C 94 % 15 lf 1008,4 hPa 0,0 l/m 0 min 2 min 0 W/m 41,8 km/h (6 Bft) 93,62 %
29.11.2015 02:14 6,4 C 6,1 C 4,4 C 94 % 15 lf 1008,2 hPa 0,0 l/m 0 min 2 min 0 W/m 46,0 km/h (6 Bft) 93,62 %
29.11.2015 02:16 6,4 C 6,1 C 4,4 C 94 % 15 lf 1008,2 hPa 0,0 l/m 0 min 2 min 0 W/m 29,3 km/h (5 Bft) 91,49 %
29.11.2015 02:18 6,4 C 6,1 C 4,4 C 94 % 15 lf 1008,2 hPa 0,0 l/m 0 min 2 min 0 W/m 35,6 km/h (5 Bft) 95,12 %
29.11.2015 02:20 6,4 C 6,1 C 4,4 C 94 % 15 lf 1008,3 hPa 0,0 l/m 0 min 2 min 0 W/m 39,7 km/h (6 Bft) 94,23 %
29.11.2015 02:22 6,4 C 6,1 C 4,4 C 94 % 15 lf 1008,3 hPa 0,0 l/m 0 min 2 min 0 W/m 35,6 km/h (5 Bft) 91,49 %
29.11.2015 02:24 6,4 C 6,1 C 4,4 C 94 % 15 lf 1008,2 hPa 0,0 l/m 0 min 2 min 0 W/m 33,5 km/h (5 Bft) 93,62 %
29.11.2015 02:26 6,4 C 6,1 C 5,0 C 94 % 15 lf 1008,3 hPa 0,0 l/m 0 min 2 min 0 W/m 35,6 km/h (5 Bft) 91,49 %
29.11.2015 02:28 6,4 C 6,1 C 5,0 C 94 % 15 lf 1008,3 hPa 0,0 l/m 0 min 2 min 0 W/m 37,7 km/h (5 Bft) 93,62 %
29.11.2015 02:30 6,4 C 6,1 C 5,0 C 94 % 15 lf 1008,3 hPa 0,0 l/m 0 min 2 min 0 W/m 31,4 km/h (5 Bft) 95,65 %
29.11.2015 02:32 6,4 C 6,1 C 5,0 C 94 % 15 lf 1008,2 hPa 0,2 l/m 0 min 2 min 0 W/m 37,7 km/h (5 Bft) 95,74 %
29.11.2015 02:34 6,4 C 6,1 C 5,0 C 95 % 15 lf 1008,1 hPa 0,0 l/m 0 min 2 min 0 W/m 31,4 km/h (5 Bft) 91,49 %
29.11.2015 02:36 6,4 C 6,1 C 5,0 C 95 % 15 lf 1008,2 hPa 0,0 l/m 0 min 2 min 0 W/m 46,0 km/h (6 Bft) 97,87 %
29.11.2015 02:38 6,4 C 6,1 C 5,0 C 95 % 15 lf 1008,3 hPa 0,0 l/m 0 min 2 min 0 W/m 29,3 km/h (5 Bft) 95,74 %
29.11.2015 02:40 6,4 C 6,1 C 5,0 C 95 % 15 lf 1008,1 hPa 0,0 l/m 0 min 2 min 0 W/m 35,6 km/h (5 Bft) 97,87 %
29.11.2015 02:42 6,5 C 6,1 C 5,0 C 95 % 15 lf 1008,2 hPa 0,0 l/m 0 min 2 min 0 W/m 33,5 km/h (5 Bft) 95,65 %
29.11.2015 02:44 6,5 C 6,1 C 5,0 C 95 % 15 lf 1008,1 hPa 0,0 l/m 0 min 2 min 0 W/m 33,5 km/h (5 Bft) 95,74 %
29.11.2015 02:46 6,5 C 6,1 C 5,0 C 95 % 15 lf 1008,2 hPa 0,0 l/m 0 min 2 min 0 W/m 41,8 km/h (6 Bft) 95,74 %
29.11.2015 02:48 6,5 C 6,1 C 5,0 C 95 % 15 lf 1008,1 hPa 0,0 l/m 0 min 2 min 0 W/m 27,2 km/h (4 Bft) 93,62 %
29.11.2015 02:50 6,5 C 6,1 C 5,0 C 95 % 15 lf 1008,2 hPa 0,0 l/m 0 min 2 min 0 W/m 35,6 km/h (5 Bft) 91,49 %
29.11.2015 02:52 6,6 C 6,1 C 5,0 C 95 % 15 lf 1008,3 hPa 0,2 l/m 0 min 2 min 0 W/m 43,9 km/h (6 Bft) 89,36 %
29.11.2015 02:54 6,6 C 6,1 C 5,0 C 95 % 15 lf 1008,3 hPa 0,0 l/m 0 min 2 min 0 W/m 37,7 km/h (5 Bft) 93,48 %
29.11.2015 02:56 6,6 C 6,1 C 5,0 C 95 % 15 lf 1008,3 hPa 0,0 l/m 0 min 2 min 0 W/m 37,7 km/h (5 Bft) 93,62 %
29.11.2015 02:58 6,6 C 6,1 C 5,0 C 95 % 15 lf 1008,2 hPa 0,0 l/m 0 min 2 min 0 W/m 33,5 km/h (5 Bft) 95,74 %
29.11.2015 03:00 6,6 C 6,1 C 5,0 C 95 % 15 lf 1008,4 hPa 0,0 l/m 0 min 2 min 0 W/m 48,1 km/h (6 Bft) 95,74 %
29.11.2015 03:02 6,6 C 6,1 C 5,0 C 95 % 15 lf 1008,5 hPa 0,0 l/m 0 min 2 min 0 W/m 35,6 km/h (5 Bft) 93,62 %
29.11.2015 03:04 6,6 C 6,1 C 5,0 C 95 % 15 lf 1008,6 hPa 0,0 l/m 0 min 2 min 0 W/m 27,2 km/h (4 Bft) 91,49 %
29.11.2015 03:06 6,6 C 6,1 C 5,0 C 95 % 15 lf 1008,6 hPa 0,0 l/m 0 min 2 min 0 W/m 46,0 km/h (6 Bft) 91,30 %
29.11.2015 03:08 6,6 C 6,1 C 5,0 C 95 % 15 lf 1008,6 hPa 0,0 l/m 0 min 2 min 0 W/m 33,5 km/h (5 Bft) 95,74 %
29.11.2015 03:10 6,7 C 6,1 C 5,0 C 95 % 15 lf 1008,8 hPa 0,0 l/m 0 min 2 min 0 W/m 46,0 km/h (6 Bft) 95,74 %
29.11.2015 03:12 6,7 C 6,1 C 5,0 C 95 % 15 lf 1008,6 hPa 0,0 l/m 0 min 2 min 0 W/m 35,6 km/h (5 Bft) 95,74 %
29.11.2015 03:14 6,7 C 6,1 C 5,0 C 95 % 15 lf 1008,7 hPa 0,0 l/m 0 min 2 min 0 W/m 50,2 km/h (7 Bft) 97,87 %
29.11.2015 03:16 6,7 C 6,7 C 5,0 C 95 % 15 lf 1008,6 hPa 0,0 l/m 0 min 2 min 0 W/m 39,7 km/h (6 Bft) 97,56 %
29.11.2015 03:18 6,7 C 6,7 C 5,0 C 95 % 15 lf 1008,6 hPa 0,0 l/m 0 min 2 min 0 W/m 39,7 km/h (6 Bft) 96,15 %
29.11.2015 03:20 6,7 C 6,7 C 5,0 C 95 % 15 lf 1008,5 hPa 0,0 l/m 0 min 2 min 0 W/m 33,5 km/h (5 Bft) 95,74 %
29.11.2015 03:22 6,8 C 6,7 C 5,0 C 95 % 15 lf 1008,5 hPa 0,0 l/m 0 min 2 min 0 W/m 37,7 km/h (5 Bft) 97,87 %
29.11.2015 03:24 6,8 C 6,7 C 5,0 C 95 % 15 lf 1008,5 hPa 0,0 l/m 0 min 2 min 0 W/m 39,7 km/h (6 Bft) 97,87 %
29.11.2015 03:26 6,8 C 6,7 C 5,0 C 95 % 15 lf 1008,5 hPa 0,0 l/m 0 min 2 min 0 W/m 46,0 km/h (6 Bft) 95,74 %
29.11.2015 03:28 6,8 C 6,7 C 5,0 C 95 % 15 lf 1008,6 hPa 0,0 l/m 0 min 2 min 0 W/m 43,9 km/h (6 Bft) 91,30 %
29.11.2015 03:30 6,8 C 6,7 C 5,0 C 95 % 15 lf 1008,5 hPa 0,2 l/m 0 min 2 min 0 W/m 29,3 km/h (5 Bft) 100,00 %
29.11.2015 03:32 6,8 C 6,7 C 5,0 C 95 % 15 lf 1008,4 hPa 0,0 l/m 0 min 2 min 0 W/m 27,2 km/h (4 Bft) 97,87 %
29.11.2015 03:34 6,8 C 6,7 C 5,0 C 95 % 15 lf 1008,2 hPa 0,0 l/m 0 min 2 min 0 W/m 27,2 km/h (4 Bft) 100,00 %
29.11.2015 03:36 6,8 C 6,7 C 5,0 C 95 % 15 lf 1008,2 hPa 0,0 l/m 0 min 2 min 0 W/m 31,4 km/h (5 Bft) 97,87 %
29.11.2015 03:38 6,9 C 6,7 C 5,0 C 95 % 15 lf 1008,1 hPa 0,0 l/m 0 min 2 min 0 W/m 41,8 km/h (6 Bft) 100,00 %
29.11.2015 03:40 6,9 C 6,7 C 5,0 C 95 % 15 lf 1008,1 hPa 0,0 l/m 0 min 2 min 0 W/m 37,7 km/h (5 Bft) 100,00 %
29.11.2015 03:42 6,9 C 6,7 C 5,0 C 95 % 15 lf 1008,1 hPa 0,0 l/m 0 min 2 min 0 W/m 37,7 km/h (5 Bft) 97,87 %
29.11.2015 03:44 6,9 C 6,7 C 5,0 C 95 % 15 lf 1008,1 hPa 0,0 l/m 0 min 2 min 0 W/m 41,8 km/h (6 Bft) 95,74 %
29.11.2015 03:46 6,9 C 6,7 C 5,0 C 95 % 15 lf 1008,1 hPa 0,0 l/m 0 min 2 min 0 W/m 39,7 km/h (6 Bft) 95,74 %
29.11.2015 03:48 6,9 C 6,7 C 5,0 C 95 % 15 lf 1008,0 hPa 0,0 l/m 0 min 2 min 0 W/m 41,8 km/h (6 Bft) 95,74 %
29.11.2015 03:50 6,9 C 6,7 C 5,0 C 95 % 15 lf 1007,9 hPa 0,0 l/m 0 min 2 min 0 W/m 43,9 km/h (6 Bft) 100,00 %
29.11.2015 03:52 6,9 C 6,7 C 5,0 C 95 % 15 lf 1008,2 hPa 0,0 l/m 0 min 2 min 0 W/m 41,8 km/h (6 Bft) 97,83 %
29.11.2015 03:54 7,0 C 6,7 C 5,6 C 95 % 15 lf 1007,9 hPa 0,0 l/m 0 min 2 min 0 W/m 46,0 km/h (6 Bft) 97,87 %
29.11.2015 03:56 7,0 C 6,7 C 5,0 C 95 % 15 lf 1007,9 hPa 0,0 l/m 0 min 2 min 0 W/m 48,1 km/h (6 Bft) 95,74 %
29.11.2015 03:58 7,0 C 6,7 C 5,6 C 95 % 15 lf 1007,7 hPa 0,0 l/m 0 min 2 min 0 W/m 39,7 km/h (6 Bft) 97,87 %
29.11.2015 04:00 7,1 C 6,7 C 5,6 C 95 % 15 lf 1007,9 hPa 0,0 l/m 0 min 2 min 0 W/m 43,9 km/h (6 Bft) 93,62 %
29.11.2015 04:02 7,1 C 6,7 C 5,6 C 95 % 15 lf 1007,7 hPa 0,0 l/m 0 min 2 min 0 W/m 20,9 km/h (4 Bft) 100,00 %
29.11.2015 04:04 7,1 C 6,7 C 5,6 C 95 % 15 lf 1007,8 hPa 0,0 l/m 0 min 2 min 0 W/m 37,7 km/h (5 Bft) 97,83 %
29.11.2015 04:06 7,1 C 6,7 C 5,6 C 95 % 15 lf 1007,9 hPa 0,0 l/m 0 min 0 min 0 W/m 35,6 km/h (5 Bft) 97,87 %
29.11.2015 04:08 7,1 C 6,7 C 5,6 C 95 % 15 lf 1007,8 hPa 0,0 l/m 0 min 0 min 0 W/m 41,8 km/h (6 Bft) 97,87 %
29.11.2015 04:10 7,2 C 6,7 C 5,6 C 95 % 15 lf 1007,8 hPa 0,0 l/m 0 min 2 min 0 W/m 37,7 km/h (5 Bft) 95,74 %
29.11.2015 04:12 7,2 C 6,7 C 5,6 C 95 % 15 lf 1007,8 hPa 0,0 l/m 0 min 2 min 0 W/m 48,1 km/h (6 Bft) 93,62 %
29.11.2015 04:14 7,2 C 6,7 C 5,6 C 95 % 15 lf 1008,0 hPa 0,0 l/m 0 min 2 min 0 W/m 39,7 km/h (6 Bft) 95,74 %
29.11.2015 04:16 7,2 C 6,7 C 5,6 C 95 % 15 lf 1007,9 hPa 0,0 l/m 0 min 2 min 0 W/m 43,9 km/h (6 Bft) 93,48 %
29.11.2015 04:18 7,2 C 6,7 C 5,6 C 95 % 15 lf 1007,8 hPa 0,0 l/m 0 min 2 min 0 W/m 46,0 km/h (6 Bft) 95,74 %
29.11.2015 04:20 7,3 C 6,7 C 5,6 C 95 % 15 lf 1007,9 hPa 0,0 l/m 0 min 2 min 0 W/m 41,8 km/h (6 Bft) 95,74 %
29.11.2015 04:22 7,3 C 6,7 C 5,6 C 95 % 15 lf 1007,8 hPa 0,0 l/m 0 min 2 min 0 W/m 39,7 km/h (6 Bft) 97,87 %
29.11.2015 04:24 7,3 C 6,7 C 5,6 C 95 % 15 lf 1007,8 hPa 0,0 l/m 0 min 2 min 0 W/m 33,5 km/h (5 Bft) 95,74 %
29.11.2015 04:26 7,3 C 6,7 C 5,6 C 95 % 15 lf 1007,7 hPa 0,0 l/m 0 min 2 min 0 W/m 35,6 km/h (5 Bft) 97,87 %
29.11.2015 04:28 7,3 C 6,7 C 5,6 C 95 % 15 lf 1007,8 hPa 0,0 l/m 0 min 2 min 0 W/m 35,6 km/h (5 Bft) 93,48 %
29.11.2015 04:30 7,3 C 6,7 C 5,6 C 95 % 15 lf 1007,8 hPa 0,0 l/m 0 min 2 min 0 W/m 33,5 km/h (5 Bft) 97,87 %
29.11.2015 04:32 7,3 C 6,7 C 5,6 C 95 % 15 lf 1007,8 hPa 0,0 l/m 0 min 2 min 0 W/m 41,8 km/h (6 Bft) 97,87 %
29.11.2015 04:34 7,3 C 6,7 C 5,6 C 95 % 15 lf 1007,7 hPa 0,0 l/m 0 min 2 min 0 W/m 35,6 km/h (5 Bft) 97,87 %
29.11.2015 04:36 7,3 C 6,7 C 5,6 C 95 % 15 lf 1007,7 hPa 0,0 l/m 0 min 2 min 0 W/m 43,9 km/h (6 Bft) 93,62 %
29.11.2015 04:38 7,3 C 6,7 C 5,6 C 95 % 15 lf 1007,7 hPa 0,0 l/m 0 min 2 min 0 W/m 35,6 km/h (5 Bft) 97,87 %
29.11.2015 04:40 7,3 C 6,7 C 5,6 C 95 % 15 lf 1007,8 hPa 0,0 l/m 0 min 2 min 0 W/m 29,3 km/h (5 Bft) 95,00 %
29.11.2015 04:42 7,4 C 6,7 C 5,6 C 95 % 15 lf 1007,6 hPa 0,0 l/m 0 min 2 min 0 W/m 35,6 km/h (5 Bft) 96,23 %
29.11.2015 04:44 7,4 C 7,2 C 5,6 C 95 % 15 lf 1007,7 hPa 0,0 l/m 0 min 2 min 0 W/m 41,8 km/h (6 Bft) 97,87 %
29.11.2015 04:46 7,4 C 7,2 C 5,6 C 95 % 15 lf 1007,8 hPa 0,0 l/m 0 min 2 min 0 W/m 43,9 km/h (6 Bft) 95,74 %
29.11.2015 04:48 7,4 C 7,2 C 5,6 C 95 % 15 lf 1007,9 hPa 0,0 l/m 0 min 2 min 0 W/m 33,5 km/h (5 Bft) 95,74 %
29.11.2015 04:50 7,4 C 7,2 C 5,6 C 95 % 15 lf 1008,0 hPa 0,0 l/m 0 min 2 min 0 W/m 33,5 km/h (5 Bft) 95,65 %
29.11.2015 04:52 7,4 C 7,2 C 5,6 C 95 % 15 lf 1007,9 hPa 0,0 l/m 0 min 2 min 0 W/m 35,6 km/h (5 Bft) 97,87 %
29.11.2015 04:54 7,5 C 7,2 C 5,6 C 95 % 15 lf 1007,9 hPa 0,0 l/m 0 min 0 min 0 W/m 25,1 km/h (4 Bft) 97,87 %
29.11.2015 04:56 7,5 C 7,2 C 5,6 C 95 % 15 lf 1008,0 hPa 0,0 l/m 0 min 0 min 0 W/m 33,5 km/h (5 Bft) 97,87 %
29.11.2015 04:58 7,6 C 7,2 C 5,6 C 95 % 15 lf 1007,9 hPa 0,0 l/m 0 min 2 min 0 W/m 37,7 km/h (5 Bft) 93,62 %
29.11.2015 05:00 7,6 C 7,2 C 5,6 C 95 % 15 lf 1007,9 hPa 0,0 l/m 0 min 2 min 0 W/m 31,4 km/h (5 Bft) 97,87 %
29.11.2015 05:02 7,6 C 7,2 C 5,6 C 95 % 15 lf 1008,0 hPa 0,0 l/m 0 min 2 min 0 W/m 52,3 km/h (7 Bft) 95,65 %
29.11.2015 05:04 7,6 C 7,2 C 5,6 C 95 % 15 lf 1008,0 hPa 0,0 l/m 0 min 2 min 0 W/m 39,7 km/h (6 Bft) 97,87 %
29.11.2015 05:06 7,7 C 7,2 C 5,6 C 95 % 15 lf 1008,1 hPa 0,0 l/m 0 min 2 min 0 W/m 29,3 km/h (5 Bft) 100,00 %
29.11.2015 05:08 7,7 C 7,2 C 5,6 C 94 % 15 lf 1008,0 hPa 0,0 l/m 0 min 2 min 0 W/m 39,7 km/h (6 Bft) 100,00 %
29.11.2015 05:10 7,7 C 7,2 C 5,6 C 94 % 15 lf 1008,1 hPa 0,0 l/m 0 min 2 min 0 W/m 35,6 km/h (5 Bft) 97,87 %
29.11.2015 05:12 7,7 C 7,2 C 6,1 C 94 % 15 lf 1008,2 hPa 0,0 l/m 0 min 2 min 0 W/m 33,5 km/h (5 Bft) 95,74 %
29.11.2015 05:14 7,7 C 7,2 C 6,1 C 95 % 15 lf 1008,2 hPa 0,0 l/m 0 min 2 min 0 W/m 39,7 km/h (6 Bft) 97,83 %
29.11.2015 05:16 7,8 C 7,2 C 6,1 C 95 % 15 lf 1008,1 hPa 0,0 l/m 0 min 2 min 0 W/m 29,3 km/h (5 Bft) 100,00 %
29.11.2015 05:18 7,8 C 7,8 C 6,1 C 94 % 15 lf 1008,1 hPa 0,0 l/m 0 min 2 min 0 W/m 43,9 km/h (6 Bft) 91,49 %
29.11.2015 05:20 7,8 C 7,8 C 6,1 C 94 % 14 lf 1008,2 hPa 0,0 l/m 0 min 2 min 0 W/m 33,5 km/h (5 Bft) 97,87 %
29.11.2015 05:22 7,8 C 7,8 C 6,1 C 94 % 14 lf 1008,2 hPa 0,0 l/m 0 min 0 min 0 W/m 31,4 km/h (5 Bft) 100,00 %
29.11.2015 05:24 7,9 C 7,8 C 6,1 C 94 % 13 lf 1008,5 hPa 0,0 l/m 0 min 0 min 0 W/m 43,9 km/h (6 Bft) 100,00 %
29.11.2015 05:26 7,9 C 7,8 C 6,1 C 94 % 13 lf 1008,3 hPa 0,0 l/m 0 min 2 min 0 W/m 39,7 km/h (6 Bft) 95,65 %
29.11.2015 05:28 7,9 C 7,8 C 6,1 C 94 % 13 lf 1008,4 hPa 0,0 l/m 0 min 2 min 0 W/m 43,9 km/h (6 Bft) 95,74 %
29.11.2015 05:30 7,9 C 7,8 C 6,1 C 94 % 12 lf 1008,5 hPa 0,0 l/m 0 min 2 min 0 W/m 33,5 km/h (5 Bft) 95,74 %
29.11.2015 05:32 7,9 C 7,8 C 6,1 C 94 % 12 lf 1008,5 hPa 0,0 l/m 0 min 2 min 0 W/m 43,9 km/h (6 Bft) 93,62 %
29.11.2015 05:34 7,9 C 7,8 C 6,1 C 94 % 12 lf 1008,5 hPa 0,0 l/m 0 min 0 min 0 W/m 41,8 km/h (6 Bft) 97,87 %
29.11.2015 05:36 8,0 C 7,8 C 6,1 C 94 % 10 lf 1008,5 hPa 0,0 l/m 0 min 2 min 0 W/m 29,3 km/h (5 Bft) 93,62 %
29.11.2015 05:38 8,0 C 7,8 C 6,1 C 94 % 10 lf 1008,4 hPa 0,0 l/m 0 min 2 min 0 W/m 35,6 km/h (5 Bft) 97,83 %
29.11.2015 05:40 8,0 C 7,8 C 6,1 C 94 % 9 lf 1008,4 hPa 0,0 l/m 0 min 0 min 0 W/m 48,1 km/h (6 Bft) 95,74 %
29.11.2015 05:42 8,1 C 7,8 C 6,1 C 93 % 9 lf 1008,4 hPa 0,0 l/m 0 min 2 min 0 W/m 43,9 km/h (6 Bft) 95,74 %
29.11.2015 05:44 8,1 C 7,8 C 6,1 C 93 % 9 lf 1008,4 hPa 0,0 l/m 0 min 0 min 0 W/m 33,5 km/h (5 Bft) 95,74 %
29.11.2015 05:46 8,1 C 7,8 C 6,1 C 93 % 13 lf 1008,5 hPa 0,0 l/m 0 min 2 min 0 W/m 41,8 km/h (6 Bft) 93,62 %
29.11.2015 05:48 8,1 C 7,8 C 6,1 C 93 % 13 lf 1008,5 hPa 0,0 l/m 0 min 2 min 0 W/m 33,5 km/h (5 Bft) 95,65 %
29.11.2015 05:50 8,1 C 7,8 C 6,1 C 93 % 12 lf 1008,5 hPa 0,0 l/m 0 min 0 min 0 W/m 37,7 km/h (5 Bft) 95,74 %
29.11.2015 05:52 8,1 C 7,8 C 6,1 C 93 % 11 lf 1008,5 hPa 0,0 l/m 0 min 2 min 0 W/m 41,8 km/h (6 Bft) 91,49 %
29.11.2015 05:54 8,1 C 7,8 C 6,1 C 93 % 10 lf 1008,5 hPa 0,0 l/m 0 min 0 min 0 W/m 37,7 km/h (5 Bft) 93,62 %
29.11.2015 05:56 8,1 C 7,8 C 6,1 C 93 % 9 lf 1008,5 hPa 0,0 l/m 0 min 0 min 0 W/m 29,3 km/h (5 Bft) 95,74 %
29.11.2015 05:58 8,1 C 7,8 C 6,1 C 93 % 9 lf 1008,5 hPa 0,0 l/m 0 min 0 min 0 W/m 39,7 km/h (6 Bft) 95,74 %
29.11.2015 06:00 8,1 C 7,8 C 6,1 C 93 % 7 lf 1008,6 hPa 0,0 l/m 0 min 2 min 0 W/m 37,7 km/h (5 Bft) 95,65 %
29.11.2015 06:02 8,1 C 7,8 C 6,1 C 93 % 6 lf 1008,5 hPa 0,0 l/m 0 min 2 min 0 W/m 31,4 km/h (5 Bft) 91,49 %
29.11.2015 06:04 8,1 C 7,8 C 6,1 C 93 % 5 lf 1008,5 hPa 0,0 l/m 0 min 0 min 0 W/m 37,7 km/h (5 Bft) 95,83 %
29.11.2015 06:06 8,1 C 7,8 C 6,1 C 93 % 4 lf 1008,5 hPa 0,0 l/m 0 min 0 min 0 W/m 39,7 km/h (6 Bft) 93,62 %
29.11.2015 06:08 8,1 C 7,8 C 6,1 C 93 % 4 lf 1008,5 hPa 0,0 l/m 0 min 0 min 0 W/m 27,2 km/h (4 Bft) 91,30 %
29.11.2015 06:10 8,1 C 7,8 C 6,1 C 93 % 4 lf 1008,6 hPa 0,0 l/m 0 min 0 min 0 W/m 33,5 km/h (5 Bft) 93,62 %
29.11.2015 06:12 8,1 C 7,8 C 6,1 C 93 % 4 lf 1008,4 hPa 0,0 l/m 0 min 2 min 0 W/m 25,1 km/h (4 Bft) 93,48 %
29.11.2015 06:14 8,1 C 7,8 C 6,1 C 93 % 4 lf 1008,5 hPa 0,0 l/m 0 min 0 min 0 W/m 25,1 km/h (4 Bft) 97,87 %
29.11.2015 06:16 8,1 C 7,8 C 6,1 C 93 % 4 lf 1008,5 hPa 0,0 l/m 0 min 0 min 0 W/m 31,4 km/h (5 Bft) 97,87 %
29.11.2015 06:18 8,1 C 7,8 C 6,1 C 93 % 4 lf 1008,4 hPa 0,0 l/m 0 min 0 min 0 W/m 33,5 km/h (5 Bft) 97,87 %
29.11.2015 06:20 8,1 C 7,8 C 6,1 C 93 % 4 lf 1008,4 hPa 0,0 l/m 0 min 0 min 0 W/m 37,7 km/h (5 Bft) 100,00 %
29.11.2015 06:22 8,1 C 7,8 C 6,1 C 93 % 3 lf 1008,3 hPa 0,0 l/m 0 min 0 min 0 W/m 31,4 km/h (5 Bft) 95,74 %
29.11.2015 06:24 8,1 C 7,8 C 6,1 C 93 % 3 lf 1008,3 hPa 0,0 l/m 0 min 0 min 0 W/m 25,1 km/h (4 Bft) 93,48 %
29.11.2015 06:26 8,1 C 7,8 C 6,1 C 93 % 3 lf 1008,3 hPa 0,0 l/m 0 min 0 min 0 W/m 39,7 km/h (6 Bft) 97,87 %
29.11.2015 06:28 8,1 C 7,8 C 6,1 C 93 % 2 lf 1008,3 hPa 0,0 l/m 0 min 0 min 0 W/m 35,6 km/h (5 Bft) 97,87 %
29.11.2015 06:30 8,1 C 7,8 C 6,1 C 93 % 2 lf 1008,5 hPa 0,0 l/m 0 min 0 min 0 W/m 39,7 km/h (6 Bft) 95,74 %
29.11.2015 06:32 8,2 C 7,8 C 6,1 C 93 % 1 lf 1008,5 hPa 0,0 l/m 0 min 0 min 0 W/m 33,5 km/h (5 Bft) 93,62 %
29.11.2015 06:34 8,2 C 7,8 C 6,1 C 93 % 1 lf 1008,4 hPa 0,0 l/m 0 min 2 min 0 W/m 37,7 km/h (5 Bft) 95,74 %
29.11.2015 06:36 8,1 C 7,8 C 6,1 C 93 % 0 lf 1008,5 hPa 0,0 l/m 0 min 0 min 0 W/m 29,3 km/h (5 Bft) 95,65 %
29.11.2015 06:38 8,1 C 7,8 C 6,1 C 93 % 0 lf 1008,5 hPa 0,0 l/m 0 min 0 min 0 W/m 33,5 km/h (5 Bft) 97,87 %
29.11.2015 06:40 8,1 C 7,8 C 6,1 C 93 % 0 lf 1008,5 hPa 0,0 l/m 0 min 0 min 0 W/m 37,7 km/h (5 Bft) 97,87 %
29.11.2015 06:42 8,2 C 7,8 C 6,1 C 93 % 0 lf 1008,5 hPa 0,0 l/m 0 min 2 min 0 W/m 35,6 km/h (5 Bft) 97,87 %
29.11.2015 06:44 8,2 C 7,8 C 6,1 C 93 % 0 lf 1008,4 hPa 0,0 l/m 0 min 0 min 0 W/m 39,7 km/h (6 Bft) 93,62 %
29.11.2015 06:46 8,2 C 7,8 C 6,1 C 93 % 0 lf 1008,5 hPa 0,0 l/m 0 min 0 min 0 W/m 33,5 km/h (5 Bft) 95,74 %
29.11.2015 06:48 8,2 C 7,8 C 6,1 C 93 % 0 lf 1008,5 hPa 0,0 l/m 0 min 0 min 0 W/m 37,7 km/h (5 Bft) 97,83 %
29.11.2015 06:50 8,2 C 7,8 C 6,1 C 93 % 3 lf 1008,5 hPa 0,0 l/m 0 min 2 min 0 W/m 33,5 km/h (5 Bft) 97,87 %
29.11.2015 06:52 8,2 C 7,8 C 6,1 C 93 % 2 lf 1008,4 hPa 0,0 l/m 0 min 0 min 0 W/m 35,6 km/h (5 Bft) 95,74 %
29.11.2015 06:54 8,2 C 7,8 C 6,1 C 93 % 1 lf 1008,4 hPa 0,0 l/m 0 min 0 min 0 W/m 27,2 km/h (4 Bft) 97,87 %
29.11.2015 06:56 8,2 C 7,8 C 6,1 C 93 % 0 lf 1008,5 hPa 0,0 l/m 0 min 0 min 0 W/m 27,2 km/h (4 Bft) 97,87 %
29.11.2015 06:58 8,2 C 7,8 C 6,1 C 93 % 0 lf 1008,5 hPa 0,0 l/m 0 min 0 min 0 W/m 29,3 km/h (5 Bft) 97,83 %
29.11.2015 07:00 8,2 C 7,8 C 6,1 C 93 % 0 lf 1008,3 hPa 0,0 l/m 0 min 0 min 0 W/m 25,1 km/h (4 Bft) 95,74 %
29.11.2015 07:02 8,2 C 7,8 C 6,1 C 93 % 0 lf 1008,3 hPa 0,0 l/m 0 min 0 min 0 W/m 31,4 km/h (5 Bft) 95,74 %
29.11.2015 07:04 8,2 C 7,8 C 6,1 C 93 % 0 lf 1008,3 hPa 0,0 l/m 0 min 0 min 0 W/m 33,5 km/h (5 Bft) 95,74 %
29.11.2015 07:06 8,2 C 7,8 C 6,1 C 93 % 0 lf 1008,3 hPa 0,0 l/m 0 min 0 min 0 W/m 29,3 km/h (5 Bft) 95,74 %
29.11.2015 07:08 8,2 C 7,8 C 6,1 C 93 % 0 lf 1008,4 hPa 0,0 l/m 0 min 0 min 0 W/m 27,2 km/h (4 Bft) 95,74 %
29.11.2015 07:10 8,2 C 7,8 C 6,1 C 93 % 0 lf 1008,5 hPa 0,0 l/m 0 min 0 min 0 W/m 31,4 km/h (5 Bft) 95,65 %
29.11.2015 07:12 8,2 C 7,8 C 6,1 C 93 % 0 lf 1008,5 hPa 0,0 l/m 0 min 0 min 0 W/m 29,3 km/h (5 Bft) 93,62 %
29.11.2015 07:14 8,2 C 7,8 C 6,1 C 93 % 0 lf 1008,5 hPa 0,0 l/m 0 min 0 min 0 W/m 31,4 km/h (5 Bft) 91,49 %
29.11.2015 07:16 8,2 C 7,8 C 6,1 C 93 % 0 lf 1008,5 hPa 0,0 l/m 0 min 0 min 0 W/m 25,1 km/h (4 Bft) 91,49 %
29.11.2015 07:18 8,2 C 7,8 C 6,1 C 93 % 0 lf 1008,5 hPa 0,0 l/m 0 min 0 min 0 W/m 25,1 km/h (4 Bft) 95,74 %
29.11.2015 07:20 8,2 C 7,8 C 6,1 C 93 % 0 lf 1008,6 hPa 0,0 l/m 0 min 0 min 0 W/m 35,6 km/h (5 Bft) 91,49 %
29.11.2015 07:22 8,2 C 7,8 C 6,1 C 93 % 0 lf 1008,6 hPa 0,0 l/m 0 min 0 min 0 W/m 37,7 km/h (5 Bft) 97,83 %
29.11.2015 07:24 8,2 C 7,8 C 6,1 C 93 % 0 lf 1008,6 hPa 0,0 l/m 0 min 0 min 0 W/m 27,2 km/h (4 Bft) 97,87 %
29.11.2015 07:26 8,3 C 7,8 C 6,7 C 93 % 0 lf 1008,6 hPa 0,0 l/m 0 min 0 min 0 W/m 33,5 km/h (5 Bft) 97,87 %
29.11.2015 07:28 8,3 C 7,8 C 6,7 C 93 % 0 lf 1008,6 hPa 0,0 l/m 0 min 0 min 0 W/m 37,7 km/h (5 Bft) 93,62 %
29.11.2015 07:30 8,3 C 7,8 C 6,7 C 93 % 0 lf 1008,6 hPa 0,0 l/m 0 min 0 min 0 W/m 29,3 km/h (5 Bft) 93,62 %
29.11.2015 07:32 8,3 C 7,8 C 6,7 C 93 % 1 lf 1008,6 hPa 0,0 l/m 0 min 0 min 0 W/m 33,5 km/h (5 Bft) 93,62 %
29.11.2015 07:34 8,3 C 7,8 C 6,7 C 92 % 1 lf 1008,6 hPa 0,0 l/m 0 min 2 min 0 W/m 27,2 km/h (4 Bft) 95,65 %
29.11.2015 07:36 8,3 C 7,8 C 6,7 C 92 % 1 lf 1008,6 hPa 0,0 l/m 0 min 0 min 0 W/m 25,1 km/h (4 Bft) 93,62 %
29.11.2015 07:38 8,3 C 7,8 C 6,7 C 92 % 1 lf 1008,6 hPa 0,0 l/m 0 min 0 min 0 W/m 37,7 km/h (5 Bft) 93,62 %
29.11.2015 07:40 8,3 C 7,8 C 6,7 C 92 % 0 lf 1008,6 hPa 0,0 l/m 0 min 0 min 0 W/m 23,0 km/h (4 Bft) 93,62 %
29.11.2015 07:42 8,3 C 7,8 C 6,7 C 92 % 1 lf 1008,6 hPa 0,0 l/m 0 min 0 min 0 W/m 33,5 km/h (5 Bft) 95,74 %
29.11.2015 07:44 8,3 C 7,8 C 6,7 C 92 % 9 lf 1008,6 hPa 0,0 l/m 0 min 2 min 0 W/m 35,6 km/h (5 Bft) 95,74 %
29.11.2015 07:46 8,4 C 7,8 C 6,7 C 92 % 14 lf 1008,6 hPa 0,0 l/m 0 min 2 min 0 W/m 39,7 km/h (6 Bft) 95,65 %
29.11.2015 07:48 8,4 C 7,8 C 6,7 C 92 % 15 lf 1008,6 hPa 0,0 l/m 0 min 2 min 0 W/m 33,5 km/h (5 Bft) 91,49 %
29.11.2015 07:50 8,4 C 7,8 C 6,7 C 92 % 15 lf 1008,5 hPa 0,0 l/m 0 min 2 min 0 W/m 27,2 km/h (4 Bft) 93,62 %
29.11.2015 07:52 8,4 C 7,8 C 6,7 C 92 % 15 lf 1008,5 hPa 0,0 l/m 0 min 2 min 0 W/m 35,6 km/h (5 Bft) 93,62 %
29.11.2015 07:54 8,4 C 7,8 C 6,7 C 93 % 15 lf 1008,6 hPa 0,0 l/m 0 min 2 min 0 W/m 29,3 km/h (5 Bft) 95,74 %
29.11.2015 07:56 8,4 C 7,8 C 6,7 C 93 % 15 lf 1008,6 hPa 0,0 l/m 0 min 2 min 0 W/m 29,3 km/h (5 Bft) 95,74 %
29.11.2015 07:58 8,4 C 7,8 C 6,7 C 93 % 15 lf 1008,5 hPa 0,0 l/m 0 min 2 min 0 W/m 35,6 km/h (5 Bft) 95,65 %
29.11.2015 08:00 8,4 C 7,8 C 6,7 C 93 % 15 lf 1008,5 hPa 0,0 l/m 0 min 2 min 0 W/m 18,8 km/h (3 Bft) 97,87 %
29.11.2015 08:02 8,4 C 7,8 C 6,1 C 93 % 15 lf 1008,5 hPa 0,2 l/m 0 min 2 min 0 W/m 33,5 km/h (5 Bft) 95,74 %
29.11.2015 08:04 8,4 C 7,8 C 6,1 C 93 % 15 lf 1008,6 hPa 0,0 l/m 0 min 0 min 0 W/m 25,1 km/h (4 Bft) 97,87 %
29.11.2015 08:06 8,3 C 7,8 C 6,1 C 93 % 15 lf 1008,6 hPa 0,0 l/m 0 min 2 min 0 W/m 31,4 km/h (5 Bft) 95,74 %
29.11.2015 08:08 8,3 C 7,8 C 6,7 C 93 % 15 lf 1008,6 hPa 0,0 l/m 0 min 2 min 0 W/m 37,7 km/h (5 Bft) 97,87 %
29.11.2015 08:10 8,3 C 7,8 C 6,7 C 93 % 15 lf 1008,5 hPa 0,0 l/m 0 min 2 min 0 W/m 31,4 km/h (5 Bft) 100,00 %
29.11.2015 08:12 8,3 C 7,8 C 6,7 C 93 % 15 lf 1008,5 hPa 0,0 l/m 0 min 2 min 0 W/m 29,3 km/h (5 Bft) 95,74 %
29.11.2015 08:14 8,3 C 7,8 C 6,7 C 93 % 15 lf 1008,6 hPa 0,0 l/m 0 min 0 min 0 W/m 29,3 km/h (5 Bft) 97,87 %
29.11.2015 08:16 8,3 C 7,8 C 6,7 C 93 % 15 lf 1008,5 hPa 0,0 l/m 0 min 2 min 0 W/m 31,4 km/h (5 Bft) 95,74 %
29.11.2015 08:18 8,3 C 7,8 C 6,7 C 93 % 15 lf 1008,5 hPa 0,0 l/m 0 min 0 min 0 W/m 25,1 km/h (4 Bft) 97,87 %
29.11.2015 08:20 8,3 C 7,8 C 6,7 C 94 % 15 lf 1008,6 hPa 0,0 l/m 0 min 0 min 0 W/m 31,4 km/h (5 Bft) 97,83 %
29.11.2015 08:22 8,3 C 7,8 C 6,7 C 94 % 15 lf 1008,6 hPa 0,0 l/m 0 min 0 min 0 W/m 43,9 km/h (6 Bft) 97,87 %
29.11.2015 08:24 8,3 C 7,8 C 6,7 C 94 % 15 lf 1008,5 hPa 0,0 l/m 0 min 0 min 0 W/m 29,3 km/h (5 Bft) 97,87 %
29.11.2015 08:26 8,3 C 7,8 C 6,7 C 94 % 15 lf 1008,6 hPa 0,0 l/m 0 min 2 min 0 W/m 33,5 km/h (5 Bft) 93,62 %
29.11.2015 08:28 8,4 C 8,3 C 6,7 C 94 % 15 lf 1008,6 hPa 0,0 l/m 0 min 2 min 5 W/m 31,4 km/h (5 Bft) 97,87 %
29.11.2015 08:30 8,4 C 7,8 C 6,7 C 94 % 15 lf 1008,7 hPa 0,0 l/m 0 min 2 min 5 W/m 35,6 km/h (5 Bft) 97,87 %
29.11.2015 08:32 8,4 C 7,8 C 6,7 C 94 % 15 lf 1008,7 hPa 0,0 l/m 0 min 2 min 5 W/m 27,2 km/h (4 Bft) 97,83 %
29.11.2015 08:34 8,4 C 7,8 C 6,7 C 94 % 15 lf 1008,6 hPa 0,0 l/m 0 min 2 min 5 W/m 29,3 km/h (5 Bft) 95,74 %
29.11.2015 08:36 8,4 C 7,8 C 6,7 C 94 % 15 lf 1008,6 hPa 0,0 l/m 0 min 2 min 7 W/m 37,7 km/h (5 Bft) 93,62 %
29.11.2015 08:38 8,4 C 7,8 C 6,7 C 94 % 15 lf 1008,7 hPa 0,0 l/m 0 min 2 min 7 W/m 33,5 km/h (5 Bft) 97,87 %
29.11.2015 08:40 8,4 C 8,3 C 6,7 C 94 % 15 lf 1008,7 hPa 0,0 l/m 0 min 2 min 8 W/m 29,3 km/h (5 Bft) 97,87 %
29.11.2015 08:42 8,4 C 8,3 C 6,7 C 94 % 15 lf 1008,5 hPa 0,0 l/m 0 min 0 min 8 W/m 31,4 km/h (5 Bft) 95,74 %
29.11.2015 08:44 8,4 C 8,3 C 6,7 C 94 % 15 lf 1008,8 hPa 0,0 l/m 0 min 0 min 10 W/m 35,6 km/h (5 Bft) 97,83 %
29.11.2015 08:46 8,4 C 8,3 C 6,7 C 94 % 15 lf 1008,8 hPa 0,0 l/m 0 min 2 min 9 W/m 37,7 km/h (5 Bft) 97,87 %
29.11.2015 08:48 8,5 C 8,3 C 6,7 C 94 % 15 lf 1008,8 hPa 0,0 l/m 0 min 0 min 12 W/m 46,0 km/h (6 Bft) 95,74 %
29.11.2015 08:50 8,5 C 8,3 C 6,7 C 94 % 15 lf 1008,8 hPa 0,0 l/m 0 min 2 min 12 W/m 39,7 km/h (6 Bft) 93,62 %
29.11.2015 08:52 8,6 C 8,3 C 6,7 C 94 % 15 lf 1008,8 hPa 0,0 l/m 0 min 2 min 13 W/m 39,7 km/h (6 Bft) 97,87 %
29.11.2015 08:54 8,6 C 8,9 C 6,7 C 94 % 15 lf 1008,8 hPa 0,0 l/m 0 min 2 min 11 W/m 39,7 km/h (6 Bft) 93,62 %
29.11.2015 08:56 8,6 C 8,9 C 6,7 C 94 % 14 lf 1008,9 hPa 0,0 l/m 0 min 2 min 13 W/m 39,7 km/h (6 Bft) 93,48 %
29.11.2015 08:58 8,6 C 8,9 C 6,7 C 94 % 14 lf 1008,8 hPa 0,0 l/m 0 min 2 min 14 W/m 31,4 km/h (5 Bft) 95,74 %
29.11.2015 09:00 8,7 C 8,9 C 6,7 C 94 % 13 lf 1008,9 hPa 0,0 l/m 0 min 2 min 13 W/m 29,3 km/h (5 Bft) 97,87 %
29.11.2015 09:02 8,7 C 8,9 C 6,7 C 94 % 12 lf 1008,9 hPa 0,0 l/m 0 min 0 min 13 W/m 25,1 km/h (4 Bft) 95,74 %
29.11.2015 09:04 8,7 C 8,9 C 6,7 C 94 % 10 lf 1008,9 hPa 0,0 l/m 0 min 0 min 9 W/m 31,4 km/h (5 Bft) 95,74 %
29.11.2015 09:06 8,7 C 8,3 C 6,7 C 94 % 15 lf 1009,0 hPa 0,2 l/m 0 min 2 min 6 W/m 39,7 km/h (6 Bft) 97,87 %
29.11.2015 09:08 8,7 C 8,3 C 6,7 C 94 % 15 lf 1008,9 hPa 0,0 l/m 0 min 2 min 8 W/m 33,5 km/h (5 Bft) 93,48 %
29.11.2015 09:10 8,7 C 8,3 C 6,7 C 94 % 15 lf 1008,9 hPa 0,0 l/m 0 min 2 min 12 W/m 29,3 km/h (5 Bft) 100,00 %
29.11.2015 09:12 8,7 C 8,3 C 6,7 C 94 % 15 lf 1008,9 hPa 0,0 l/m 0 min 2 min 12 W/m 27,2 km/h (4 Bft) 97,87 %
29.11.2015 09:14 8,7 C 8,3 C 6,7 C 94 % 15 lf 1008,9 hPa 0,0 l/m 0 min 0 min 13 W/m 33,5 km/h (5 Bft) 97,87 %
29.11.2015 09:16 8,7 C 8,3 C 6,7 C 94 % 15 lf 1008,9 hPa 0,0 l/m 0 min 0 min 11 W/m 33,5 km/h (5 Bft) 95,74 %
29.11.2015 09:18 8,8 C 8,3 C 6,7 C 94 % 15 lf 1009,0 hPa 0,0 l/m 0 min 0 min 11 W/m 41,8 km/h (6 Bft) 100,00 %
29.11.2015 09:20 8,8 C 8,3 C 6,7 C 94 % 15 lf 1008,9 hPa 0,0 l/m 0 min 0 min 10 W/m 37,7 km/h (5 Bft) 100,00 %
29.11.2015 09:22 8,8 C 8,3 C 6,7 C 94 % 15 lf 1009,0 hPa 0,0 l/m 0 min 0 min 12 W/m 43,9 km/h (6 Bft) 97,87 %
29.11.2015 09:24 8,8 C 8,3 C 7,2 C 94 % 15 lf 1008,9 hPa 0,0 l/m 0 min 0 min 16 W/m 37,7 km/h (5 Bft) 95,74 %
29.11.2015 09:26 8,8 C 8,3 C 7,2 C 94 % 15 lf 1008,9 hPa 0,0 l/m 0 min 2 min 17 W/m 39,7 km/h (6 Bft) 97,87 %
29.11.2015 09:28 8,8 C 8,3 C 7,2 C 94 % 15 lf 1008,8 hPa 0,0 l/m 0 min 2 min 20 W/m 41,8 km/h (6 Bft) 97,87 %
29.11.2015 09:30 8,8 C 8,3 C 7,2 C 94 % 15 lf 1008,8 hPa 0,0 l/m 0 min 2 min 23 W/m 37,7 km/h (5 Bft) 97,83 %
29.11.2015 09:32 8,8 C 8,3 C 7,2 C 94 % 15 lf 1008,8 hPa 0,0 l/m 0 min 2 min 32 W/m 35,6 km/h (5 Bft) 97,87 %
29.11.2015 09:34 8,9 C 8,3 C 7,2 C 94 % 15 lf 1008,9 hPa 0,0 l/m 0 min 2 min 35 W/m 41,8 km/h (6 Bft) 95,74 %
29.11.2015 09:36 8,9 C 8,3 C 7,2 C 94 % 15 lf 1008,9 hPa 0,0 l/m 0 min 2 min 39 W/m 29,3 km/h (5 Bft) 97,87 %
29.11.2015 09:38 8,9 C 8,3 C 7,2 C 94 % 15 lf 1008,8 hPa 0,0 l/m 0 min 0 min 38 W/m 31,4 km/h (5 Bft) 97,87 %
29.11.2015 09:40 8,9 C 8,3 C 7,2 C 94 % 15 lf 1008,8 hPa 0,0 l/m 0 min 2 min 40 W/m 25,1 km/h (4 Bft) 97,87 %
29.11.2015 09:42 8,9 C 8,9 C 7,2 C 94 % 15 lf 1008,8 hPa 0,0 l/m 0 min 2 min 42 W/m 48,1 km/h (6 Bft) 95,65 %
29.11.2015 09:44 8,9 C 8,9 C 7,2 C 94 % 15 lf 1008,8 hPa 0,0 l/m 0 min 2 min 44 W/m 37,7 km/h (5 Bft) 95,74 %
29.11.2015 09:46 8,9 C 8,9 C 7,2 C 94 % 15 lf 1008,8 hPa 0,0 l/m 0 min 2 min 45 W/m 37,7 km/h (5 Bft) 97,87 %
29.11.2015 09:48 8,9 C 8,9 C 7,2 C 94 % 15 lf 1008,8 hPa 0,0 l/m 0 min 2 min 46 W/m 27,2 km/h (4 Bft) 97,87 %
29.11.2015 09:50 8,9 C 8,9 C 7,2 C 94 % 15 lf 1008,8 hPa 0,0 l/m 0 min 2 min 47 W/m 33,5 km/h (5 Bft) 95,74 %
29.11.2015 09:52 9,0 C 8,9 C 7,2 C 94 % 15 lf 1008,9 hPa 0,0 l/m 0 min 0 min 49 W/m 31,4 km/h (5 Bft) 95,74 %
29.11.2015 09:54 9,0 C 8,9 C 7,2 C 94 % 15 lf 1008,8 hPa 0,0 l/m 0 min 2 min 50 W/m 35,6 km/h (5 Bft) 100,00 %
29.11.2015 09:56 9,0 C 8,9 C 7,2 C 94 % 15 lf 1008,9 hPa 0,0 l/m 0 min 2 min 54 W/m 35,6 km/h (5 Bft) 100,00 %
29.11.2015 09:58 9,1 C 8,9 C 7,2 C 94 % 15 lf 1008,9 hPa 0,0 l/m 0 min 0 min 57 W/m 29,3 km/h (5 Bft) 100,00 %
29.11.2015 10:00 9,1 C 8,9 C 7,2 C 94 % 15 lf 1008,9 hPa 0,0 l/m 0 min 0 min 59 W/m 37,7 km/h (5 Bft) 100,00 %
29.11.2015 10:02 9,1 C 8,9 C 7,2 C 94 % 15 lf 1009,0 hPa 0,0 l/m 0 min 0 min 63 W/m 39,7 km/h (6 Bft) 97,87 %
29.11.2015 10:04 9,1 C 8,9 C 7,2 C 94 % 15 lf 1008,9 hPa 0,0 l/m 0 min 0 min 66 W/m 31,4 km/h (5 Bft) 97,87 %
29.11.2015 10:06 9,2 C 9,4 C 7,2 C 94 % 14 lf 1008,9 hPa 0,0 l/m 0 min 0 min 67 W/m 31,4 km/h (5 Bft) 100,00 %
29.11.2015 10:08 9,2 C 9,4 C 7,2 C 94 % 13 lf 1008,9 hPa 0,0 l/m 0 min 0 min 67 W/m 41,8 km/h (6 Bft) 95,74 %
29.11.2015 10:10 9,2 C 9,4 C 7,2 C 94 % 12 lf 1008,9 hPa 0,0 l/m 0 min 0 min 69 W/m 25,1 km/h (4 Bft) 97,87 %
29.11.2015 10:12 9,2 C 9,4 C 7,2 C 94 % 10 lf 1009,0 hPa 0,0 l/m 0 min 0 min 70 W/m 35,6 km/h (5 Bft) 93,62 %
29.11.2015 10:14 9,3 C 9,4 C 7,8 C 94 % 7 lf 1008,9 hPa 0,0 l/m 0 min 0 min 64 W/m 46,0 km/h (6 Bft) 95,74 %
29.11.2015 10:16 9,3 C 9,4 C 7,8 C 94 % 4 lf 1009,0 hPa 0,0 l/m 0 min 0 min 61 W/m 33,5 km/h (5 Bft) 93,62 %
29.11.2015 10:18 9,3 C 9,4 C 7,8 C 94 % 3 lf 1009,0 hPa 0,0 l/m 0 min 0 min 61 W/m 27,2 km/h (4 Bft) 93,48 %
29.11.2015 10:20 9,3 C 9,4 C 7,8 C 94 % 2 lf 1009,1 hPa 0,0 l/m 0 min 0 min 64 W/m 41,8 km/h (6 Bft) 89,36 %
29.11.2015 10:22 9,4 C 9,4 C 7,8 C 94 % 0 lf 1009,0 hPa 0,0 l/m 0 min 0 min 69 W/m 33,5 km/h (5 Bft) 95,74 %
29.11.2015 10:24 9,4 C 9,4 C 7,8 C 93 % 0 lf 1009,0 hPa 0,0 l/m 0 min 0 min 75 W/m 37,7 km/h (5 Bft) 93,62 %
29.11.2015 10:26 9,4 C 9,4 C 7,8 C 94 % 0 lf 1009,0 hPa 0,0 l/m 0 min 0 min 82 W/m 33,5 km/h (5 Bft) 93,62 %
29.11.2015 10:28 9,4 C 9,4 C 7,8 C 93 % 0 lf 1009,0 hPa 0,0 l/m 0 min 0 min 87 W/m 39,7 km/h (6 Bft) 93,48 %
29.11.2015 10:30 9,5 C 9,4 C 7,8 C 93 % 0 lf 1009,0 hPa 0,0 l/m 0 min 0 min 87 W/m 43,9 km/h (6 Bft) 93,62 %
29.11.2015 10:32 9,6 C 10,0 C 7,8 C 93 % 0 lf 1009,1 hPa 0,0 l/m 0 min 0 min 89 W/m 37,7 km/h (5 Bft) 95,74 %
29.11.2015 10:34 9,6 C 10,0 C 7,8 C 93 % 0 lf 1009,1 hPa 0,0 l/m 0 min 0 min 95 W/m 37,7 km/h (5 Bft) 93,62 %
29.11.2015 10:36 9,6 C 10,0 C 7,8 C 93 % 0 lf 1009,1 hPa 0,0 l/m 0 min 0 min 102 W/m 46,0 km/h (6 Bft) 93,62 %
29.11.2015 10:38 9,7 C 10,0 C 7,8 C 93 % 0 lf 1009,0 hPa 0,0 l/m 0 min 0 min 105 W/m 43,9 km/h (6 Bft) 95,74 %
29.11.2015 10:40 9,7 C 10,0 C 7,8 C 93 % 0 lf 1009,0 hPa 0,0 l/m 0 min 0 min 104 W/m 35,6 km/h (5 Bft) 91,30 %
29.11.2015 10:42 9,7 C 10,0 C 7,8 C 93 % 0 lf 1009,1 hPa 0,0 l/m 0 min 0 min 109 W/m 33,5 km/h (5 Bft) 95,74 %
29.11.2015 10:44 9,7 C 10,0 C 7,8 C 93 % 0 lf 1009,0 hPa 0,0 l/m 0 min 0 min 115 W/m 37,7 km/h (5 Bft) 93,62 %
29.11.2015 10:46 9,8 C 10,0 C 7,8 C 92 % 0 lf 1009,1 hPa 0,0 l/m 0 min 0 min 119 W/m 41,8 km/h (6 Bft) 91,49 %
29.11.2015 10:48 9,8 C 10,0 C 7,8 C 92 % 0 lf 1009,1 hPa 0,0 l/m 0 min 0 min 117 W/m 35,6 km/h (5 Bft) 93,62 %
29.11.2015 10:50 9,8 C 10,0 C 7,8 C 92 % 0 lf 1009,1 hPa 0,0 l/m 0 min 0 min 113 W/m 33,5 km/h (5 Bft) 93,62 %
29.11.2015 10:52 9,8 C 10,6 C 7,8 C 92 % 0 lf 1009,1 hPa 0,0 l/m 0 min 0 min 114 W/m 41,8 km/h (6 Bft) 91,30 %
29.11.2015 10:54 9,9 C 11,1 C 8,3 C 92 % 0 lf 1009,2 hPa 0,0 l/m 0 min 0 min 125 W/m 46,0 km/h (6 Bft) 93,62 %
29.11.2015 10:56 9,9 C 11,1 C 8,3 C 92 % 0 lf 1009,3 hPa 0,0 l/m 2 min 0 min 134 W/m 35,6 km/h (5 Bft) 93,62 %
29.11.2015 10:58 9,9 C 11,1 C 8,3 C 91 % 0 lf 1009,2 hPa 0,0 l/m 2 min 0 min 141 W/m 43,9 km/h (6 Bft) 91,49 %
29.11.2015 11:00 10,0 C 11,1 C 8,3 C 91 % 0 lf 1009,3 hPa 0,0 l/m 2 min 0 min 142 W/m 39,7 km/h (6 Bft) 93,62 %
29.11.2015 11:02 10,0 C 11,1 C 8,3 C 91 % 0 lf 1009,3 hPa 0,0 l/m 2 min 0 min 145 W/m 48,1 km/h (6 Bft) 93,62 %
29.11.2015 11:04 10,1 C 11,7 C 8,3 C 91 % 0 lf 1009,3 hPa 0,0 l/m 2 min 0 min 143 W/m 35,6 km/h (5 Bft) 91,30 %
29.11.2015 11:06 10,1 C 11,7 C 8,3 C 91 % 0 lf 1009,3 hPa 0,0 l/m 2 min 0 min 142 W/m 29,3 km/h (5 Bft) 89,36 %
29.11.2015 11:08 10,1 C 11,7 C 8,3 C 91 % 0 lf 1009,3 hPa 0,0 l/m 2 min 0 min 141 W/m 35,6 km/h (5 Bft) 95,74 %
29.11.2015 11:10 10,2 C 11,7 C 8,3 C 90 % 0 lf 1009,3 hPa 0,0 l/m 2 min 0 min 137 W/m 33,5 km/h (5 Bft) 95,74 %
29.11.2015 11:12 10,2 C 11,7 C 8,3 C 90 % 0 lf 1009,4 hPa 0,0 l/m 2 min 0 min 138 W/m 39,7 km/h (6 Bft) 91,49 %
29.11.2015 11:14 10,2 C 11,7 C 8,3 C 90 % 0 lf 1009,4 hPa 0,0 l/m 2 min 0 min 139 W/m 33,5 km/h (5 Bft) 95,74 %
29.11.2015 11:16 10,2 C 11,7 C 8,3 C 90 % 0 lf 1009,4 hPa 0,0 l/m 0 min 0 min 136 W/m 37,7 km/h (5 Bft) 89,13 %
29.11.2015 11:18 10,3 C 11,7 C 8,3 C 90 % 0 lf 1009,5 hPa 0,0 l/m 0 min 0 min 132 W/m 39,7 km/h (6 Bft) 93,62 %
29.11.2015 11:20 10,3 C 11,1 C 8,3 C 90 % 0 lf 1009,5 hPa 0,0 l/m 0 min 0 min 122 W/m 37,7 km/h (5 Bft) 95,74 %
29.11.2015 11:22 10,3 C 11,1 C 8,9 C 90 % 0 lf 1009,5 hPa 0,0 l/m 0 min 0 min 120 W/m 31,4 km/h (5 Bft) 93,62 %
29.11.2015 11:24 10,3 C 11,1 C 8,9 C 89 % 0 lf 1009,5 hPa 0,0 l/m 0 min 0 min 124 W/m 39,7 km/h (6 Bft) 93,62 %
29.11.2015 11:26 10,3 C 11,7 C 8,9 C 89 % 0 lf 1009,6 hPa 0,0 l/m 0 min 0 min 122 W/m 35,6 km/h (5 Bft) 93,62 %
29.11.2015 11:28 10,4 C 11,7 C 8,9 C 89 % 0 lf 1009,6 hPa 0,0 l/m 0 min 0 min 129 W/m 33,5 km/h (5 Bft) 93,48 %
29.11.2015 11:30 10,4 C 11,7 C 8,9 C 89 % 0 lf 1009,6 hPa 0,0 l/m 0 min 0 min 142 W/m 29,3 km/h (5 Bft) 95,74 %
29.11.2015 11:32 10,4 C 11,7 C 8,9 C 89 % 0 lf 1009,5 hPa 0,0 l/m 0 min 0 min 136 W/m 48,1 km/h (6 Bft) 93,62 %
29.11.2015 11:34 10,4 C 11,7 C 9,4 C 89 % 0 lf 1009,4 hPa 0,0 l/m 0 min 0 min 114 W/m 35,6 km/h (5 Bft) 97,87 %
29.11.2015 11:36 10,5 C 11,7 C 9,4 C 89 % 0 lf 1009,5 hPa 0,0 l/m 0 min 0 min 106 W/m 37,7 km/h (5 Bft) 95,74 %
29.11.2015 11:38 10,5 C 11,1 C 8,9 C 89 % 2 lf 1009,5 hPa 0,0 l/m 0 min 0 min 69 W/m 31,4 km/h (5 Bft) 91,49 %
29.11.2015 11:40 10,5 C 11,1 C 8,9 C 89 % 15 lf 1009,5 hPa 0,0 l/m 0 min 2 min 38 W/m 37,7 km/h (5 Bft) 93,48 %
29.11.2015 11:42 10,5 C 10,6 C 8,9 C 89 % 15 lf 1009,4 hPa 0,0 l/m 0 min 2 min 43 W/m 31,4 km/h (5 Bft) 95,74 %
29.11.2015 11:44 10,5 C 10,6 C 8,3 C 89 % 14 lf 1009,4 hPa 0,0 l/m 0 min 2 min 47 W/m 33,5 km/h (5 Bft) 95,74 %
29.11.2015 11:46 10,5 C 10,6 C 8,3 C 89 % 15 lf 1009,4 hPa 0,0 l/m 0 min 2 min 52 W/m 35,6 km/h (5 Bft) 97,87 %
29.11.2015 11:48 10,5 C 10,6 C 8,3 C 89 % 15 lf 1009,3 hPa 0,0 l/m 0 min 2 min 61 W/m 29,3 km/h (5 Bft) 95,74 %
29.11.2015 11:50 10,4 C 10,6 C 8,9 C 89 % 12 lf 1009,4 hPa 0,0 l/m 0 min 0 min 73 W/m 41,8 km/h (6 Bft) 100,00 %
29.11.2015 11:52 10,4 C 10,6 C 8,9 C 89 % 8 lf 1009,3 hPa 0,0 l/m 0 min 2 min 76 W/m 39,7 km/h (6 Bft) 97,87 %
29.11.2015 11:54 10,4 C 10,6 C 8,9 C 89 % 7 lf 1009,4 hPa 0,0 l/m 0 min 2 min 62 W/m 31,4 km/h (5 Bft) 100,00 %
29.11.2015 11:56 10,4 C 10,6 C 8,3 C 89 % 15 lf 1009,4 hPa 0,0 l/m 0 min 2 min 46 W/m 27,2 km/h (4 Bft) 97,87 %
29.11.2015 11:58 10,4 C 10,6 C 8,3 C 89 % 14 lf 1009,4 hPa 0,0 l/m 0 min 2 min 44 W/m 37,7 km/h (5 Bft) 100,00 %
29.11.2015 12:00 10,4 C 10,6 C 8,3 C 89 % 13 lf 1009,5 hPa 0,0 l/m 0 min 2 min 46 W/m 33,5 km/h (5 Bft) 97,87 %
29.11.2015 12:02 10,3 C 10,0 C 8,3 C 89 % 14 lf 1009,5 hPa 0,0 l/m 0 min 2 min 49 W/m 37,7 km/h (5 Bft) 100,00 %
29.11.2015 12:06 10,3 C 10,6 C 8,3 C 89 % 11 lf 1009,4 hPa 0,0 l/m 0 min 2 min 70 W/m 33,5 km/h (5 Bft) 97,87 %
29.11.2015 12:08 10,3 C 10,6 C 8,3 C 89 % 9 lf 1009,4 hPa 0,0 l/m 0 min 2 min 67 W/m 27,2 km/h (4 Bft) 97,87 %
29.11.2015 12:10 10,3 C 10,6 C 8,9 C 89 % 4 lf 1009,3 hPa 0,0 l/m 0 min 2 min 72 W/m 29,3 km/h (5 Bft) 100,00 %
29.11.2015 12:12 10,3 C 10,6 C 8,9 C 89 % 4 lf 1009,3 hPa 0,0 l/m 0 min 2 min 75 W/m 29,3 km/h (5 Bft) 100,00 %
29.11.2015 12:14 10,3 C 10,6 C 8,9 C 89 % 4 lf 1009,2 hPa 0,0 l/m 0 min 2 min 66 W/m 31,4 km/h (5 Bft) 100,00 %
29.11.2015 12:16 10,3 C 10,6 C 8,9 C 89 % 15 lf 1009,2 hPa 0,0 l/m 0 min 2 min 65 W/m 41,8 km/h (6 Bft) 100,00 %
29.11.2015 12:18 10,3 C 10,6 C 8,3 C 89 % 15 lf 1009,3 hPa 0,0 l/m 0 min 2 min 57 W/m 37,7 km/h (5 Bft) 97,87 %
29.11.2015 12:20 10,3 C 10,0 C 8,3 C 90 % 15 lf 1009,2 hPa 0,0 l/m 0 min 2 min 66 W/m 27,2 km/h (4 Bft) 100,00 %
29.11.2015 12:22 10,3 C 10,0 C 8,3 C 90 % 15 lf 1009,2 hPa 0,0 l/m 0 min 2 min 81 W/m 33,5 km/h (5 Bft) 95,74 %
29.11.2015 12:24 10,3 C 10,6 C 8,3 C 90 % 15 lf 1009,2 hPa 0,0 l/m 0 min 2 min 85 W/m 27,2 km/h (4 Bft) 97,87 %
29.11.2015 12:26 10,3 C 10,6 C 8,3 C 90 % 15 lf 1009,2 hPa 0,0 l/m 0 min 2 min 82 W/m 25,1 km/h (4 Bft) 95,65 %
29.11.2015 12:28 10,3 C 10,6 C 8,3 C 90 % 15 lf 1009,1 hPa 0,0 l/m 0 min 2 min 71 W/m 16,7 km/h (3 Bft) 97,87 %
29.11.2015 12:30 10,3 C 10,6 C 8,3 C 90 % 15 lf 1009,1 hPa 0,0 l/m 0 min 2 min 80 W/m 39,7 km/h (6 Bft) 100,00 %
29.11.2015 12:32 10,3 C 10,6 C 8,3 C 90 % 15 lf 1009,0 hPa 0,0 l/m 0 min 2 min 80 W/m 29,3 km/h (5 Bft) 97,87 %
29.11.2015 12:34 10,3 C 10,6 C 8,3 C 90 % 15 lf 1009,0 hPa 0,0 l/m 0 min 2 min 74 W/m 35,6 km/h (5 Bft) 93,62 %
29.11.2015 12:36 10,3 C 10,6 C 8,3 C 90 % 15 lf 1009,0 hPa 0,0 l/m 0 min 2 min 65 W/m 33,5 km/h (5 Bft) 100,00 %
29.11.2015 12:38 10,3 C 10,6 C 8,3 C 90 % 15 lf 1008,9 hPa 0,0 l/m 0 min 2 min 56 W/m 33,5 km/h (5 Bft) 97,83 %
29.11.2015 12:40 10,3 C 10,6 C 8,3 C 90 % 15 lf 1008,9 hPa 0,0 l/m 0 min 2 min 51 W/m 41,8 km/h (6 Bft) 100,00 %
29.11.2015 12:42 10,3 C 10,6 C 8,3 C 90 % 13 lf 1008,9 hPa 0,0 l/m 0 min 2 min 47 W/m 29,3 km/h (5 Bft) 95,74 %
29.11.2015 12:44 10,3 C 10,6 C 8,3 C 90 % 13 lf 1008,8 hPa 0,0 l/m 0 min 2 min 44 W/m 29,3 km/h (5 Bft) 95,74 %
29.11.2015 12:46 10,3 C 10,6 C 8,3 C 90 % 15 lf 1008,8 hPa 0,0 l/m 0 min 2 min 37 W/m 29,3 km/h (5 Bft) 100,00 %
29.11.2015 12:48 10,4 C 10,0 C 8,3 C 90 % 15 lf 1008,8 hPa 0,0 l/m 0 min 2 min 32 W/m 25,1 km/h (4 Bft) 97,87 %
29.11.2015 12:50 10,4 C 10,0 C 8,3 C 90 % 15 lf 1008,9 hPa 0,2 l/m 0 min 2 min 29 W/m 25,1 km/h (4 Bft) 100,00 %
29.11.2015 12:52 10,4 C 10,0 C 8,3 C 90 % 15 lf 1008,8 hPa 0,0 l/m 0 min 2 min 27 W/m 35,6 km/h (5 Bft) 100,00 %
29.11.2015 12:54 10,3 C 9,4 C 7,8 C 90 % 15 lf 1008,8 hPa 0,0 l/m 0 min 2 min 27 W/m 37,7 km/h (5 Bft) 95,74 %
29.11.2015 12:56 10,3 C 9,4 C 7,8 C 90 % 15 lf 1008,7 hPa 0,0 l/m 0 min 2 min 32 W/m 27,2 km/h (4 Bft) 95,74 %
29.11.2015 12:58 10,3 C 9,4 C 7,8 C 90 % 15 lf 1008,7 hPa 0,0 l/m 0 min 2 min 31 W/m 18,8 km/h (3 Bft) 97,87 %
29.11.2015 13:00 10,3 C 9,4 C 7,8 C 90 % 15 lf 1008,7 hPa 0,2 l/m 0 min 2 min 31 W/m 23,0 km/h (4 Bft) 100,00 %
29.11.2015 13:02 10,3 C 9,4 C 7,8 C 90 % 15 lf 1008,6 hPa 0,0 l/m 0 min 2 min 29 W/m 33,5 km/h (5 Bft) 97,83 %
29.11.2015 13:04 10,2 C 9,4 C 7,8 C 91 % 15 lf 1008,7 hPa 0,0 l/m 0 min 2 min 24 W/m 25,1 km/h (4 Bft) 100,00 %
29.11.2015 13:06 10,2 C 9,4 C 7,8 C 91 % 15 lf 1008,5 hPa 0,0 l/m 0 min 2 min 21 W/m 27,2 km/h (4 Bft) 100,00 %
29.11.2015 13:08 10,2 C 9,4 C 7,8 C 91 % 15 lf 1008,6 hPa 0,0 l/m 0 min 2 min 23 W/m 29,3 km/h (5 Bft) 97,87 %
29.11.2015 13:10 10,2 C 9,4 C 7,8 C 91 % 15 lf 1008,5 hPa 0,2 l/m 0 min 2 min 27 W/m 35,6 km/h (5 Bft) 97,87 %
29.11.2015 13:12 10,1 C 9,4 C 7,8 C 91 % 15 lf 1008,7 hPa 0,0 l/m 0 min 2 min 31 W/m 33,5 km/h (5 Bft) 95,65 %
29.11.2015 13:14 10,1 C 9,4 C 7,8 C 92 % 15 lf 1008,5 hPa 0,0 l/m 0 min 2 min 28 W/m 23,0 km/h (4 Bft) 93,62 %
29.11.2015 13:16 10,1 C 9,4 C 7,8 C 92 % 15 lf 1008,5 hPa 0,2 l/m 0 min 2 min 26 W/m 23,0 km/h (4 Bft) 97,87 %
29.11.2015 13:18 10,1 C 9,4 C 7,8 C 92 % 15 lf 1008,3 hPa 0,0 l/m 0 min 2 min 28 W/m 23,0 km/h (4 Bft) 95,74 %
29.11.2015 13:20 10,0 C 9,4 C 7,8 C 92 % 15 lf 1008,4 hPa 0,0 l/m 0 min 2 min 22 W/m 31,4 km/h (5 Bft) 93,62 %
29.11.2015 13:22 10,0 C 9,4 C 7,8 C 92 % 15 lf 1008,4 hPa 0,2 l/m 0 min 2 min 17 W/m 31,4 km/h (5 Bft) 93,62 %
29.11.2015 13:24 10,0 C 9,4 C 7,8 C 93 % 15 lf 1008,5 hPa 0,0 l/m 0 min 2 min 13 W/m 27,2 km/h (4 Bft) 91,30 %
29.11.2015 13:26 10,0 C 9,4 C 7,8 C 93 % 15 lf 1008,6 hPa 0,2 l/m 0 min 2 min 15 W/m 39,7 km/h (6 Bft) 95,74 %
29.11.2015 13:28 9,9 C 9,4 C 7,8 C 93 % 15 lf 1008,5 hPa 0,2 l/m 0 min 2 min 18 W/m 37,7 km/h (5 Bft) 93,62 %
29.11.2015 13:30 9,9 C 9,4 C 7,8 C 93 % 15 lf 1008,4 hPa 0,2 l/m 0 min 2 min 16 W/m 33,5 km/h (5 Bft) 93,62 %
29.11.2015 13:32 9,9 C 9,4 C 7,8 C 93 % 15 lf 1008,3 hPa 0,0 l/m 0 min 2 min 18 W/m 41,8 km/h (6 Bft) 93,62 %
29.11.2015 13:34 9,9 C 9,4 C 7,8 C 93 % 15 lf 1008,3 hPa 0,2 l/m 0 min 2 min 20 W/m 39,7 km/h (6 Bft) 95,74 %
29.11.2015 13:36 9,9 C 9,4 C 7,8 C 93 % 15 lf 1008,2 hPa 0,0 l/m 0 min 2 min 25 W/m 46,0 km/h (6 Bft) 95,65 %
29.11.2015 13:38 9,9 C 9,4 C 7,8 C 94 % 15 lf 1008,2 hPa 0,0 l/m 0 min 2 min 24 W/m 46,0 km/h (6 Bft) 93,62 %
29.11.2015 13:40 9,9 C 9,4 C 7,8 C 94 % 15 lf 1008,1 hPa 0,2 l/m 0 min 2 min 29 W/m 31,4 km/h (5 Bft) 89,36 %
29.11.2015 13:42 9,8 C 9,4 C 7,8 C 94 % 15 lf 1008,1 hPa 0,0 l/m 0 min 2 min 24 W/m 43,9 km/h (6 Bft) 95,74 %
29.11.2015 13:44 9,8 C 9,4 C 7,8 C 94 % 15 lf 1007,9 hPa 0,0 l/m 0 min 2 min 17 W/m 37,7 km/h (5 Bft) 95,74 %
29.11.2015 13:46 9,9 C 9,4 C 7,8 C 94 % 15 lf 1008,0 hPa 0,0 l/m 0 min 2 min 17 W/m 33,5 km/h (5 Bft) 95,74 %
29.11.2015 13:48 9,8 C 9,4 C 7,8 C 94 % 15 lf 1008,0 hPa 0,0 l/m 0 min 0 min 23 W/m 37,7 km/h (5 Bft) 93,48 %
29.11.2015 13:50 9,8 C 9,4 C 7,8 C 94 % 15 lf 1007,8 hPa 0,0 l/m 0 min 0 min 27 W/m 31,4 km/h (5 Bft) 89,36 %
29.11.2015 13:52 9,8 C 9,4 C 7,8 C 94 % 15 lf 1007,9 hPa 0,0 l/m 0 min 0 min 25 W/m 46,0 km/h (6 Bft) 95,74 %
29.11.2015 13:54 9,8 C 9,4 C 8,3 C 94 % 15 lf 1007,9 hPa 0,0 l/m 0 min 0 min 30 W/m 39,7 km/h (6 Bft) 93,62 %
29.11.2015 13:56 9,8 C 9,4 C 8,3 C 94 % 15 lf 1007,9 hPa 0,0 l/m 0 min 0 min 23 W/m 52,3 km/h (7 Bft) 93,62 %
29.11.2015 13:58 9,9 C 9,4 C 8,3 C 94 % 15 lf 1007,9 hPa 0,0 l/m 0 min 0 min 24 W/m 37,7 km/h (5 Bft) 93,62 %
29.11.2015 14:00 9,9 C 9,4 C 8,3 C 95 % 15 lf 1007,9 hPa 0,0 l/m 0 min 0 min 30 W/m 41,8 km/h (6 Bft) 95,65 %
29.11.2015 14:02 9,9 C 9,4 C 8,3 C 95 % 15 lf 1007,9 hPa 0,0 l/m 0 min 0 min 28 W/m 54,4 km/h (7 Bft) 95,74 %
29.11.2015 14:04 9,9 C 9,4 C 8,3 C 95 % 15 lf 1007,8 hPa 0,0 l/m 0 min 0 min 27 W/m 48,1 km/h (6 Bft) 97,87 %
29.11.2015 14:06 9,9 C 9,4 C 8,3 C 95 % 15 lf 1007,9 hPa 0,0 l/m 0 min 0 min 25 W/m 52,3 km/h (7 Bft) 93,62 %
29.11.2015 14:08 10,0 C 9,4 C 8,3 C 95 % 15 lf 1007,8 hPa 0,0 l/m 0 min 2 min 15 W/m 41,8 km/h (6 Bft) 97,87 %
29.11.2015 14:10 10,0 C 9,4 C 8,3 C 95 % 15 lf 1007,8 hPa 0,0 l/m 0 min 2 min 19 W/m 52,3 km/h (7 Bft) 95,74 %
29.11.2015 14:12 10,1 C 9,4 C 8,3 C 95 % 15 lf 1007,8 hPa 0,0 l/m 0 min 2 min 36 W/m 48,1 km/h (6 Bft) 93,48 %
29.11.2015 14:14 10,1 C 9,4 C 8,3 C 95 % 15 lf 1007,8 hPa 0,0 l/m 0 min 2 min 26 W/m 37,7 km/h (5 Bft) 95,74 %
29.11.2015 14:16 10,1 C 10,0 C 8,3 C 95 % 15 lf 1007,8 hPa 0,0 l/m 0 min 2 min 31 W/m 41,8 km/h (6 Bft) 95,74 %
29.11.2015 14:18 10,1 C 10,0 C 8,3 C 95 % 15 lf 1007,8 hPa 0,0 l/m 0 min 2 min 27 W/m 46,0 km/h (6 Bft) 91,49 %
29.11.2015 14:20 10,2 C 10,0 C 8,3 C 94 % 15 lf 1007,8 hPa 0,0 l/m 0 min 2 min 21 W/m 41,8 km/h (6 Bft) 93,62 %
29.11.2015 14:22 10,2 C 10,0 C 8,3 C 94 % 15 lf 1007,8 hPa 0,0 l/m 0 min 2 min 22 W/m 43,9 km/h (6 Bft) 89,13 %
29.11.2015 14:24 10,2 C 10,0 C 8,3 C 94 % 15 lf 1007,9 hPa 0,0 l/m 0 min 2 min 33 W/m 41,8 km/h (6 Bft) 93,62 %
29.11.2015 14:26 10,2 C 10,0 C 8,3 C 94 % 15 lf 1007,8 hPa 0,0 l/m 0 min 2 min 32 W/m 33,5 km/h (5 Bft) 95,74 %
29.11.2015 14:28 10,2 C 10,0 C 8,3 C 94 % 15 lf 1007,8 hPa 0,0 l/m 0 min 2 min 31 W/m 50,2 km/h (7 Bft) 95,74 %
29.11.2015 14:30 10,2 C 10,0 C 8,3 C 94 % 15 lf 1007,9 hPa 0,0 l/m 0 min 2 min 25 W/m 41,8 km/h (6 Bft) 97,87 %
29.11.2015 14:32 10,3 C 10,0 C 8,3 C 94 % 15 lf 1007,8 hPa 0,0 l/m 0 min 2 min 33 W/m 39,7 km/h (6 Bft) 97,87 %
29.11.2015 14:34 10,3 C 10,0 C 8,3 C 94 % 15 lf 1007,9 hPa 0,0 l/m 0 min 2 min 26 W/m 46,0 km/h (6 Bft) 95,65 %
29.11.2015 14:36 10,3 C 10,0 C 8,3 C 94 % 15 lf 1007,7 hPa 0,0 l/m 0 min 2 min 27 W/m 50,2 km/h (7 Bft) 95,74 %
29.11.2015 14:38 10,3 C 10,0 C 8,3 C 94 % 15 lf 1007,7 hPa 0,0 l/m 0 min 2 min 40 W/m 43,9 km/h (6 Bft) 95,74 %
29.11.2015 14:40 10,2 C 10,0 C 8,3 C 94 % 15 lf 1007,6 hPa 0,0 l/m 0 min 2 min 45 W/m 46,0 km/h (6 Bft) 97,87 %
29.11.2015 14:42 10,2 C 10,0 C 8,3 C 94 % 15 lf 1007,8 hPa 0,0 l/m 0 min 2 min 48 W/m 46,0 km/h (6 Bft) 95,74 %
29.11.2015 14:44 10,2 C 10,0 C 8,3 C 94 % 15 lf 1007,7 hPa 0,0 l/m 0 min 2 min 50 W/m 48,1 km/h (6 Bft) 95,74 %
29.11.2015 14:46 10,2 C 10,0 C 8,3 C 94 % 15 lf 1007,7 hPa 0,0 l/m 0 min 2 min 49 W/m 41,8 km/h (6 Bft) 95,65 %
29.11.2015 14:48 10,2 C 10,0 C 8,3 C 94 % 15 lf 1007,6 hPa 0,0 l/m 0 min 2 min 48 W/m 29,3 km/h (5 Bft) 93,62 %
29.11.2015 14:50 10,2 C 10,0 C 8,3 C 94 % 15 lf 1007,5 hPa 0,0 l/m 0 min 2 min 45 W/m 39,7 km/h (6 Bft) 97,87 %
29.11.2015 14:52 10,2 C 10,0 C 8,3 C 94 % 15 lf 1007,5 hPa 0,0 l/m 0 min 2 min 40 W/m 39,7 km/h (6 Bft) 97,87 %
29.11.2015 14:54 10,2 C 10,0 C 8,3 C 94 % 15 lf 1007,5 hPa 0,0 l/m 0 min 2 min 38 W/m 41,8 km/h (6 Bft) 95,74 %
29.11.2015 14:56 10,2 C 10,0 C 8,3 C 94 % 15 lf 1007,5 hPa 0,0 l/m 0 min 2 min 37 W/m 37,7 km/h (5 Bft) 91,49 %
29.11.2015 14:58 10,2 C 10,0 C 8,3 C 94 % 15 lf 1007,4 hPa 0,0 l/m 0 min 2 min 36 W/m 41,8 km/h (6 Bft) 95,65 %
29.11.2015 15:00 10,2 C 10,0 C 8,3 C 94 % 15 lf 1007,4 hPa 0,0 l/m 0 min 2 min 38 W/m 41,8 km/h (6 Bft) 97,87 %
29.11.2015 15:02 10,3 C 10,0 C 8,3 C 94 % 15 lf 1007,5 hPa 0,0 l/m 0 min 2 min 37 W/m 33,5 km/h (5 Bft) 93,62 %
29.11.2015 15:04 10,3 C 10,0 C 8,3 C 94 % 15 lf 1007,5 hPa 0,0 l/m 0 min 2 min 35 W/m 43,9 km/h (6 Bft) 93,62 %
29.11.2015 15:06 10,3 C 10,0 C 8,3 C 94 % 15 lf 1007,5 hPa 0,0 l/m 0 min 2 min 32 W/m 43,9 km/h (6 Bft) 93,62 %
29.11.2015 15:08 10,3 C 10,0 C 8,3 C 94 % 15 lf 1007,6 hPa 0,0 l/m 0 min 2 min 29 W/m 50,2 km/h (7 Bft) 95,74 %
29.11.2015 15:10 10,3 C 10,0 C 8,3 C 94 % 15 lf 1007,6 hPa 0,0 l/m 0 min 2 min 23 W/m 41,8 km/h (6 Bft) 91,30 %
29.11.2015 15:12 10,3 C 10,0 C 8,3 C 94 % 15 lf 1007,6 hPa 0,0 l/m 0 min 2 min 22 W/m 52,3 km/h (7 Bft) 95,74 %
29.11.2015 15:14 10,4 C 10,0 C 8,3 C 94 % 15 lf 1007,8 hPa 0,0 l/m 0 min 2 min 27 W/m 46,0 km/h (6 Bft) 91,49 %
29.11.2015 15:16 10,4 C 10,0 C 8,3 C 93 % 15 lf 1007,7 hPa 0,0 l/m 0 min 2 min 26 W/m 48,1 km/h (6 Bft) 93,62 %
29.11.2015 15:18 10,4 C 10,0 C 8,3 C 93 % 15 lf 1007,8 hPa 0,0 l/m 0 min 2 min 21 W/m 43,9 km/h (6 Bft) 97,87 %
29.11.2015 15:20 10,5 C 10,0 C 8,3 C 93 % 15 lf 1007,8 hPa 0,0 l/m 0 min 2 min 19 W/m 43,9 km/h (6 Bft) 95,74 %
29.11.2015 15:22 10,5 C 10,0 C 8,3 C 93 % 14 lf 1007,7 hPa 0,0 l/m 0 min 2 min 19 W/m 46,0 km/h (6 Bft) 95,65 %
29.11.2015 15:24 10,5 C 10,0 C 8,3 C 93 % 13 lf 1007,8 hPa 0,0 l/m 0 min 2 min 23 W/m 46,0 km/h (6 Bft) 97,87 %
29.11.2015 15:26 10,6 C 10,0 C 8,3 C 92 % 11 lf 1007,9 hPa 0,0 l/m 0 min 2 min 21 W/m 60,7 km/h (7 Bft) 93,62 %
29.11.2015 15:28 10,6 C 10,0 C 8,3 C 92 % 8 lf 1007,7 hPa 0,0 l/m 0 min 2 min 29 W/m 52,3 km/h (7 Bft) 95,74 %
29.11.2015 15:30 10,6 C 10,0 C 8,3 C 92 % 6 lf 1007,7 hPa 0,0 l/m 0 min 2 min 26 W/m 41,8 km/h (6 Bft) 97,87 %
29.11.2015 15:32 10,7 C 10,0 C 8,3 C 92 % 4 lf 1007,7 hPa 0,0 l/m 0 min 2 min 30 W/m 43,9 km/h (6 Bft) 95,65 %
29.11.2015 15:34 10,7 C 10,0 C 8,3 C 91 % 3 lf 1007,6 hPa 0,0 l/m 0 min 0 min 29 W/m 46,0 km/h (6 Bft) 97,87 %
29.11.2015 15:36 10,7 C 10,0 C 8,3 C 91 % 2 lf 1007,6 hPa 0,0 l/m 0 min 0 min 22 W/m 54,4 km/h (7 Bft) 89,36 %
29.11.2015 15:38 10,7 C 10,0 C 8,3 C 91 % 2 lf 1007,7 hPa 0,0 l/m 0 min 0 min 16 W/m 41,8 km/h (6 Bft) 100,00 %
29.11.2015 15:40 10,8 C 10,0 C 8,3 C 91 % 1 lf 1007,6 hPa 0,0 l/m 0 min 0 min 18 W/m 54,4 km/h (7 Bft) 100,00 %
29.11.2015 15:42 10,8 C 10,0 C 8,3 C 90 % 1 lf 1007,6 hPa 0,0 l/m 0 min 0 min 18 W/m 62,8 km/h (8 Bft) 97,87 %
29.11.2015 15:44 10,9 C 10,0 C 8,3 C 90 % 1 lf 1007,6 hPa 0,0 l/m 0 min 0 min 20 W/m 48,1 km/h (6 Bft) 95,65 %
29.11.2015 15:46 10,9 C 10,0 C 8,3 C 90 % 0 lf 1007,6 hPa 0,0 l/m 0 min 0 min 17 W/m 43,9 km/h (6 Bft) 97,87 %
29.11.2015 15:48 10,9 C 10,0 C 8,3 C 90 % 0 lf 1007,7 hPa 0,0 l/m 0 min 0 min 17 W/m 58,6 km/h (7 Bft) 97,87 %
29.11.2015 15:50 10,9 C 10,0 C 8,3 C 89 % 0 lf 1007,5 hPa 0,0 l/m 0 min 0 min 15 W/m 37,7 km/h (5 Bft) 100,00 %
29.11.2015 15:52 10,9 C 10,0 C 8,3 C 89 % 0 lf 1007,5 hPa 0,0 l/m 0 min 0 min 14 W/m 27,2 km/h (4 Bft) 100,00 %
29.11.2015 15:54 10,9 C 10,0 C 8,3 C 89 % 0 lf 1007,6 hPa 0,0 l/m 0 min 0 min 14 W/m 48,1 km/h (6 Bft) 100,00 %
29.11.2015 15:56 10,9 C 10,0 C 8,3 C 89 % 0 lf 1007,6 hPa 0,0 l/m 0 min 0 min 13 W/m 41,8 km/h (6 Bft) 100,00 %
29.11.2015 15:58 10,9 C 10,0 C 8,3 C 89 % 0 lf 1007,6 hPa 0,0 l/m 0 min 0 min 12 W/m 43,9 km/h (6 Bft) 95,74 %
29.11.2015 16:00 10,9 C 10,0 C 8,3 C 89 % 0 lf 1007,7 hPa 0,0 l/m 0 min 0 min 10 W/m 46,0 km/h (6 Bft) 97,87 %
29.11.2015 16:02 11,0 C 10,0 C 8,3 C 89 % 0 lf 1007,8 hPa 0,0 l/m 0 min 0 min 6 W/m 54,4 km/h (7 Bft) 100,00 %
29.11.2015 16:04 11,0 C 10,0 C 8,3 C 88 % 0 lf 1007,7 hPa 0,0 l/m 0 min 0 min 5 W/m 41,8 km/h (6 Bft) 95,74 %
29.11.2015 16:06 11,0 C 10,0 C 8,3 C 88 % 0 lf 1007,8 hPa 0,0 l/m 0 min 0 min 5 W/m 39,7 km/h (6 Bft) 97,87 %
29.11.2015 16:08 11,0 C 10,0 C 8,3 C 88 % 0 lf 1007,8 hPa 0,0 l/m 0 min 0 min 5 W/m 48,1 km/h (6 Bft) 97,83 %
29.11.2015 16:10 11,1 C 10,6 C 8,9 C 88 % 0 lf 1007,8 hPa 0,0 l/m 0 min 0 min 1 W/m 69,0 km/h (8 Bft) 95,74 %
29.11.2015 16:12 11,1 C 10,6 C 8,9 C 88 % 2 lf 1007,7 hPa 0,0 l/m 0 min 0 min 0 W/m 62,8 km/h (8 Bft) 93,62 %
29.11.2015 16:14 11,1 C 10,6 C 9,4 C 88 % 3 lf 1007,9 hPa 0,0 l/m 0 min 2 min 0 W/m 52,3 km/h (7 Bft) 97,87 %
29.11.2015 16:16 11,1 C 10,6 C 9,4 C 88 % 3 lf 1007,8 hPa 0,0 l/m 0 min 2 min 0 W/m 43,9 km/h (6 Bft) 93,62 %
29.11.2015 16:18 11,1 C 10,6 C 9,4 C 88 % 3 lf 1007,8 hPa 0,0 l/m 0 min 2 min 0 W/m 56,5 km/h (7 Bft) 95,74 %
29.11.2015 16:20 11,1 C 10,0 C 8,9 C 88 % 2 lf 1007,6 hPa 0,0 l/m 0 min 2 min 0 W/m 48,1 km/h (6 Bft) 97,83 %
29.11.2015 16:22 11,1 C 10,0 C 8,9 C 88 % 15 lf 1007,7 hPa 0,0 l/m 0 min 2 min 0 W/m 52,3 km/h (7 Bft) 97,87 %
29.11.2015 16:24 11,1 C 10,0 C 8,9 C 88 % 15 lf 1007,8 hPa 0,0 l/m 0 min 2 min 0 W/m 50,2 km/h (7 Bft) 93,62 %
29.11.2015 16:26 11,1 C 10,0 C 8,9 C 88 % 15 lf 1007,9 hPa 0,0 l/m 0 min 2 min 0 W/m 50,2 km/h (7 Bft) 93,62 %
29.11.2015 16:28 11,1 C 10,0 C 8,9 C 88 % 15 lf 1007,9 hPa 0,0 l/m 0 min 2 min 0 W/m 54,4 km/h (7 Bft) 95,74 %
29.11.2015 16:30 11,1 C 10,0 C 8,9 C 88 % 15 lf 1007,9 hPa 0,0 l/m 0 min 2 min 0 W/m 41,8 km/h (6 Bft) 93,62 %
29.11.2015 16:32 11,0 C 10,0 C 8,3 C 88 % 15 lf 1007,9 hPa 0,2 l/m 0 min 2 min 0 W/m 56,5 km/h (7 Bft) 95,65 %
29.11.2015 16:34 11,0 C 10,0 C 8,3 C 88 % 15 lf 1007,8 hPa 0,0 l/m 0 min 2 min 0 W/m 39,7 km/h (6 Bft) 93,62 %
29.11.2015 16:36 10,9 C 9,4 C 8,3 C 89 % 15 lf 1007,6 hPa 0,0 l/m 0 min 2 min 0 W/m 39,7 km/h (6 Bft) 95,74 %
29.11.2015 16:38 10,9 C 9,4 C 8,3 C 89 % 15 lf 1007,8 hPa 0,0 l/m 0 min 2 min 0 W/m 43,9 km/h (6 Bft) 93,62 %
29.11.2015 16:40 10,8 C 9,4 C 8,3 C 89 % 15 lf 1007,7 hPa 0,0 l/m 0 min 2 min 0 W/m 43,9 km/h (6 Bft) 91,49 %
29.11.2015 16:42 10,8 C 9,4 C 8,3 C 89 % 15 lf 1007,9 hPa 0,2 l/m 0 min 2 min 0 W/m 46,0 km/h (6 Bft) 93,62 %
29.11.2015 16:44 10,7 C 9,4 C 8,3 C 90 % 15 lf 1007,8 hPa 0,0 l/m 0 min 2 min 0 W/m 54,4 km/h (7 Bft) 93,48 %
29.11.2015 16:46 10,7 C 9,4 C 8,3 C 90 % 15 lf 1007,9 hPa 0,0 l/m 0 min 2 min 0 W/m 48,1 km/h (6 Bft) 93,62 %
29.11.2015 16:48 10,7 C 9,4 C 8,3 C 90 % 15 lf 1007,9 hPa 0,0 l/m 0 min 2 min 0 W/m 46,0 km/h (6 Bft) 93,62 %
29.11.2015 16:50 10,6 C 9,4 C 8,3 C 90 % 15 lf 1007,8 hPa 0,0 l/m 0 min 2 min 0 W/m 41,8 km/h (6 Bft) 91,49 %
29.11.2015 16:52 10,6 C 9,4 C 8,3 C 91 % 15 lf 1007,8 hPa 0,0 l/m 0 min 2 min 0 W/m 41,8 km/h (6 Bft) 89,36 %
29.11.2015 16:54 10,6 C 9,4 C 8,3 C 91 % 15 lf 1007,9 hPa 0,0 l/m 0 min 2 min 0 W/m 43,9 km/h (6 Bft) 89,13 %
29.11.2015 16:56 10,5 C 9,4 C 8,3 C 91 % 15 lf 1008,0 hPa 0,0 l/m 0 min 2 min 0 W/m 39,7 km/h (6 Bft) 93,62 %
29.11.2015 16:58 10,5 C 10,0 C 8,3 C 91 % 15 lf 1008,0 hPa 0,0 l/m 0 min 2 min 0 W/m 43,9 km/h (6 Bft) 95,74 %
29.11.2015 17:00 10,4 C 10,0 C 8,3 C 91 % 15 lf 1008,1 hPa 0,0 l/m 0 min 2 min 0 W/m 43,9 km/h (6 Bft) 95,74 %
29.11.2015 17:02 10,4 C 10,0 C 8,3 C 91 % 15 lf 1007,8 hPa 0,0 l/m 0 min 2 min 0 W/m 54,4 km/h (7 Bft) 93,62 %
29.11.2015 17:04 10,4 C 10,0 C 8,3 C 91 % 15 lf 1008,0 hPa 0,0 l/m 0 min 2 min 0 W/m 43,9 km/h (6 Bft) 93,62 %
29.11.2015 17:06 10,4 C 10,0 C 8,3 C 91 % 15 lf 1008,1 hPa 0,0 l/m 0 min 0 min 0 W/m 43,9 km/h (6 Bft) 93,48 %
29.11.2015 17:08 10,4 C 10,0 C 8,3 C 91 % 15 lf 1008,2 hPa 0,0 l/m 0 min 0 min 0 W/m 52,3 km/h (7 Bft) 95,74 %
29.11.2015 17:10 10,4 C 10,0 C 8,3 C 91 % 15 lf 1008,2 hPa 0,0 l/m 0 min 2 min 0 W/m 54,4 km/h (7 Bft) 91,49 %
29.11.2015 17:12 10,4 C 10,0 C 8,3 C 91 % 15 lf 1008,3 hPa 0,0 l/m 0 min 2 min 0 W/m 50,2 km/h (7 Bft) 97,87 %
29.11.2015 17:14 10,4 C 10,0 C 8,3 C 91 % 15 lf 1008,1 hPa 0,0 l/m 0 min 2 min 0 W/m 50,2 km/h (7 Bft) 97,87 %
29.11.2015 17:16 10,4 C 10,0 C 8,3 C 91 % 15 lf 1008,3 hPa 0,0 l/m 0 min 2 min 0 W/m 52,3 km/h (7 Bft) 97,87 %
29.11.2015 17:18 10,4 C 10,0 C 8,3 C 91 % 15 lf 1008,3 hPa 0,0 l/m 0 min 2 min 0 W/m 48,1 km/h (6 Bft) 97,83 %
29.11.2015 17:20 10,4 C 10,0 C 8,3 C 91 % 15 lf 1008,2 hPa 0,0 l/m 0 min 2 min 0 W/m 46,0 km/h (6 Bft) 93,62 %
29.11.2015 17:22 10,4 C 10,0 C 8,3 C 91 % 15 lf 1008,2 hPa 0,0 l/m 0 min 2 min 0 W/m 52,3 km/h (7 Bft) 93,62 %
29.11.2015 17:24 10,4 C 10,0 C 8,3 C 91 % 15 lf 1008,2 hPa 0,0 l/m 0 min 2 min 0 W/m 39,7 km/h (6 Bft) 100,00 %
29.11.2015 17:26 10,4 C 10,0 C 8,3 C 91 % 15 lf 1008,1 hPa 0,0 l/m 0 min 2 min 0 W/m 39,7 km/h (6 Bft) 100,00 %
29.11.2015 17:28 10,4 C 10,0 C 8,3 C 91 % 15 lf 1008,2 hPa 0,0 l/m 0 min 0 min 0 W/m 46,0 km/h (6 Bft) 100,00 %
29.11.2015 17:30 10,4 C 10,0 C 8,3 C 91 % 15 lf 1008,1 hPa 0,0 l/m 0 min 0 min 0 W/m 48,1 km/h (6 Bft) 97,83 %
29.11.2015 17:32 10,5 C 10,6 C 8,3 C 91 % 15 lf 1008,1 hPa 0,0 l/m 0 min 0 min 0 W/m 48,1 km/h (6 Bft) 95,74 %
29.11.2015 17:34 10,5 C 10,6 C 8,3 C 91 % 15 lf 1008,4 hPa 0,0 l/m 0 min 0 min 0 W/m 48,1 km/h (6 Bft) 95,74 %
29.11.2015 17:36 10,5 C 10,6 C 8,3 C 91 % 15 lf 1008,1 hPa 0,0 l/m 0 min 0 min 0 W/m 43,9 km/h (6 Bft) 100,00 %
29.11.2015 17:38 10,6 C 10,6 C 8,3 C 91 % 15 lf 1007,9 hPa 0,0 l/m 0 min 0 min 0 W/m 43,9 km/h (6 Bft) 100,00 %
29.11.2015 17:40 10,6 C 10,6 C 8,3 C 90 % 15 lf 1008,2 hPa 0,0 l/m 0 min 0 min 0 W/m 58,6 km/h (7 Bft) 97,87 %
29.11.2015 17:42 10,6 C 10,6 C 8,3 C 90 % 15 lf 1008,2 hPa 0,0 l/m 0 min 0 min 0 W/m 50,2 km/h (7 Bft) 100,00 %
29.11.2015 17:44 10,6 C 10,6 C 8,3 C 90 % 15 lf 1008,2 hPa 0,0 l/m 0 min 0 min 0 W/m 46,0 km/h (6 Bft) 97,87 %
29.11.2015 17:46 10,6 C 11,1 C 8,3 C 90 % 15 lf 1008,2 hPa 0,0 l/m 0 min 0 min 0 W/m 62,8 km/h (8 Bft) 91,49 %
29.11.2015 17:48 10,7 C 11,1 C 8,9 C 90 % 13 lf 1008,3 hPa 0,0 l/m 0 min 0 min 0 W/m 56,5 km/h (7 Bft) 100,00 %
29.11.2015 17:50 10,7 C 11,1 C 8,9 C 90 % 11 lf 1008,3 hPa 0,0 l/m 0 min 0 min 0 W/m 46,0 km/h (6 Bft) 97,87 %
29.11.2015 17:52 10,8 C 11,1 C 8,9 C 89 % 5 lf 1008,2 hPa 0,0 l/m 0 min 0 min 0 W/m 52,3 km/h (7 Bft) 100,00 %
29.11.2015 17:54 10,8 C 11,1 C 8,9 C 89 % 3 lf 1008,2 hPa 0,0 l/m 0 min 0 min 0 W/m 64,9 km/h (8 Bft) 100,00 %
29.11.2015 17:56 10,8 C 11,1 C 8,9 C 89 % 1 lf 1008,0 hPa 0,0 l/m 0 min 0 min 0 W/m 48,1 km/h (6 Bft) 100,00 %
29.11.2015 17:58 10,9 C 11,1 C 8,9 C 89 % 0 lf 1008,2 hPa 0,0 l/m 0 min 0 min 0 W/m 54,4 km/h (7 Bft) 100,00 %
29.11.2015 18:00 10,9 C 11,1 C 8,9 C 89 % 0 lf 1008,0 hPa 0,0 l/m 0 min 0 min 0 W/m 43,9 km/h (6 Bft) 100,00 %
29.11.2015 18:02 10,9 C 11,1 C 8,9 C 88 % 0 lf 1008,2 hPa 0,0 l/m 0 min 0 min 0 W/m 56,5 km/h (7 Bft) 97,87 %
29.11.2015 18:04 10,9 C 11,1 C 8,9 C 88 % 0 lf 1008,2 hPa 0,0 l/m 0 min 0 min 0 W/m 56,5 km/h (7 Bft) 97,87 %
29.11.2015 18:06 10,9 C 11,1 C 8,9 C 88 % 0 lf 1008,0 hPa 0,0 l/m 0 min 0 min 0 W/m 56,5 km/h (7 Bft) 100,00 %
29.11.2015 18:08 11,0 C 11,1 C 8,9 C 88 % 0 lf 1008,0 hPa 0,0 l/m 0 min 0 min 0 W/m 60,7 km/h (7 Bft) 97,87 %
29.11.2015 18:10 11,0 C 11,1 C 8,9 C 88 % 0 lf 1008,1 hPa 0,0 l/m 0 min 0 min 0 W/m 52,3 km/h (7 Bft) 97,87 %
29.11.2015 18:12 11,0 C 11,1 C 8,9 C 88 % 0 lf 1007,9 hPa 0,0 l/m 0 min 0 min 0 W/m 43,9 km/h (6 Bft) 97,87 %
29.11.2015 18:14 11,0 C 11,1 C 8,9 C 88 % 0 lf 1008,0 hPa 0,0 l/m 0 min 0 min 0 W/m 46,0 km/h (6 Bft) 100,00 %
29.11.2015 18:16 11,0 C 11,1 C 8,9 C 88 % 0 lf 1008,0 hPa 0,0 l/m 0 min 0 min 0 W/m 46,0 km/h (6 Bft) 97,83 %
29.11.2015 18:18 11,0 C 11,1 C 8,9 C 88 % 0 lf 1008,0 hPa 0,0 l/m 0 min 0 min 0 W/m 48,1 km/h (6 Bft) 97,87 %
29.11.2015 18:20 11,0 C 11,1 C 8,9 C 88 % 0 lf 1008,0 hPa 0,0 l/m 0 min 0 min 0 W/m 52,3 km/h (7 Bft) 97,87 %
29.11.2015 18:22 11,0 C 11,1 C 8,9 C 88 % 0 lf 1008,0 hPa 0,0 l/m 0 min 0 min 0 W/m 64,9 km/h (8 Bft) 95,74 %
29.11.2015 18:24 11,0 C 11,1 C 8,9 C 88 % 0 lf 1008,1 hPa 0,0 l/m 0 min 0 min 0 W/m 58,6 km/h (7 Bft) 97,87 %
29.11.2015 18:26 11,1 C 11,1 C 9,4 C 88 % 0 lf 1008,1 hPa 0,0 l/m 0 min 0 min 0 W/m 58,6 km/h (7 Bft) 93,62 %
29.11.2015 18:28 11,1 C 11,1 C 9,4 C 88 % 0 lf 1008,0 hPa 0,0 l/m 0 min 0 min 0 W/m 46,0 km/h (6 Bft) 97,83 %
29.11.2015 18:30 11,1 C 11,1 C 9,4 C 88 % 0 lf 1008,1 hPa 0,0 l/m 0 min 0 min 0 W/m 58,6 km/h (7 Bft) 97,87 %
29.11.2015 18:32 11,1 C 11,1 C 9,4 C 88 % 0 lf 1008,1 hPa 0,0 l/m 0 min 0 min 0 W/m 60,7 km/h (7 Bft) 95,74 %
29.11.2015 18:34 11,1 C 11,1 C 9,4 C 88 % 0 lf 1008,3 hPa 0,0 l/m 0 min 0 min 0 W/m 39,7 km/h (6 Bft) 97,87 %
29.11.2015 18:36 11,1 C 11,7 C 9,4 C 88 % 0 lf 1008,2 hPa 0,0 l/m 0 min 0 min 0 W/m 56,5 km/h (7 Bft) 97,87 %
29.11.2015 18:38 11,1 C 11,1 C 9,4 C 88 % 1 lf 1008,1 hPa 0,0 l/m 0 min 0 min 0 W/m 43,9 km/h (6 Bft) 95,74 %
29.11.2015 18:40 11,1 C 11,1 C 9,4 C 88 % 0 lf 1008,2 hPa 0,0 l/m 0 min 0 min 0 W/m 52,3 km/h (7 Bft) 95,65 %
29.11.2015 18:42 11,2 C 11,1 C 9,4 C 88 % 1 lf 1008,2 hPa 0,0 l/m 0 min 0 min 0 W/m 46,0 km/h (6 Bft) 97,87 %
29.11.2015 18:44 11,1 C 11,1 C 9,4 C 88 % 12 lf 1008,1 hPa 0,0 l/m 0 min 2 min 0 W/m 43,9 km/h (6 Bft) 93,62 %
29.11.2015 18:46 11,1 C 11,1 C 9,4 C 88 % 15 lf 1008,1 hPa 0,0 l/m 0 min 2 min 0 W/m 64,9 km/h (8 Bft) 95,74 %
29.11.2015 18:48 11,1 C 10,6 C 8,9 C 88 % 15 lf 1008,2 hPa 0,0 l/m 0 min 2 min 0 W/m 48,1 km/h (6 Bft) 93,62 %
29.11.2015 18:50 11,1 C 10,6 C 8,9 C 88 % 15 lf 1008,2 hPa 0,0 l/m 0 min 2 min 0 W/m 50,2 km/h (7 Bft) 95,74 %
29.11.2015 18:52 11,1 C 10,6 C 8,9 C 88 % 15 lf 1008,1 hPa 0,0 l/m 0 min 2 min 0 W/m 31,4 km/h (5 Bft) 91,30 %
29.11.2015 18:54 11,1 C 10,6 C 8,9 C 88 % 15 lf 1008,2 hPa 0,0 l/m 0 min 2 min 0 W/m 37,7 km/h (5 Bft) 91,49 %
29.11.2015 18:56 11,0 C 10,0 C 8,9 C 89 % 15 lf 1008,1 hPa 0,0 l/m 0 min 2 min 0 W/m 43,9 km/h (6 Bft) 93,62 %
29.11.2015 18:58 11,0 C 10,0 C 8,9 C 89 % 15 lf 1008,1 hPa 0,0 l/m 0 min 2 min 0 W/m 46,0 km/h (6 Bft) 93,62 %
29.11.2015 19:00 10,9 C 10,0 C 8,9 C 89 % 15 lf 1008,0 hPa 0,0 l/m 0 min 2 min 0 W/m 35,6 km/h (5 Bft) 95,74 %
29.11.2015 19:02 10,9 C 10,0 C 8,9 C 89 % 15 lf 1008,1 hPa 0,2 l/m 0 min 2 min 0 W/m 52,3 km/h (7 Bft) 91,49 %
29.11.2015 19:04 10,9 C 10,0 C 8,9 C 90 % 15 lf 1008,0 hPa 0,0 l/m 0 min 2 min 0 W/m 48,1 km/h (6 Bft) 93,48 %
29.11.2015 19:06 10,8 C 10,0 C 8,9 C 90 % 15 lf 1008,1 hPa 0,0 l/m 0 min 2 min 0 W/m 52,3 km/h (7 Bft) 93,62 %
29.11.2015 19:08 10,8 C 10,0 C 8,3 C 90 % 15 lf 1008,1 hPa 0,0 l/m 0 min 2 min 0 W/m 50,2 km/h (7 Bft) 91,49 %
29.11.2015 19:10 10,8 C 10,0 C 8,3 C 90 % 15 lf 1008,3 hPa 0,0 l/m 0 min 2 min 0 W/m 48,1 km/h (6 Bft) 89,36 %
29.11.2015 19:12 10,7 C 10,0 C 8,3 C 91 % 15 lf 1008,1 hPa 0,0 l/m 0 min 2 min 0 W/m 56,5 km/h (7 Bft) 82,98 %
29.11.2015 19:14 10,7 C 10,0 C 8,3 C 91 % 15 lf 1007,9 hPa 0,0 l/m 0 min 2 min 0 W/m 48,1 km/h (6 Bft) 91,49 %
29.11.2015 19:16 10,7 C 10,0 C 8,3 C 91 % 15 lf 1008,0 hPa 0,2 l/m 0 min 2 min 0 W/m 39,7 km/h (6 Bft) 91,30 %
29.11.2015 19:18 10,6 C 10,0 C 8,3 C 91 % 15 lf 1008,1 hPa 0,0 l/m 0 min 2 min 0 W/m 50,2 km/h (7 Bft) 91,49 %
29.11.2015 19:20 10,6 C 10,0 C 8,3 C 92 % 15 lf 1008,1 hPa 0,0 l/m 0 min 2 min 0 W/m 41,8 km/h (6 Bft) 93,62 %
29.11.2015 19:22 10,6 C 10,0 C 8,3 C 92 % 15 lf 1008,1 hPa 0,0 l/m 0 min 2 min 0 W/m 46,0 km/h (6 Bft) 93,62 %
29.11.2015 19:24 10,5 C 10,0 C 8,3 C 92 % 15 lf 1007,8 hPa 0,0 l/m 0 min 2 min 0 W/m 43,9 km/h (6 Bft) 91,49 %
29.11.2015 19:26 10,5 C 10,0 C 8,3 C 92 % 15 lf 1007,9 hPa 0,0 l/m 0 min 2 min 0 W/m 48,1 km/h (6 Bft) 93,48 %
29.11.2015 19:28 10,5 C 10,0 C 8,3 C 92 % 15 lf 1007,9 hPa 0,0 l/m 0 min 2 min 0 W/m 48,1 km/h (6 Bft) 89,36 %
29.11.2015 19:30 10,4 C 10,0 C 8,3 C 92 % 15 lf 1007,8 hPa 0,0 l/m 0 min 2 min 0 W/m 60,7 km/h (7 Bft) 95,74 %
29.11.2015 19:32 10,4 C 10,0 C 8,3 C 93 % 15 lf 1008,1 hPa 0,0 l/m 0 min 2 min 0 W/m 50,2 km/h (7 Bft) 93,62 %
29.11.2015 19:34 10,4 C 10,0 C 8,3 C 93 % 15 lf 1008,0 hPa 0,0 l/m 0 min 2 min 0 W/m 54,4 km/h (7 Bft) 95,74 %
29.11.2015 19:36 10,4 C 10,0 C 8,3 C 93 % 15 lf 1008,0 hPa 0,0 l/m 0 min 2 min 0 W/m 66,9 km/h (8 Bft) 95,74 %
29.11.2015 19:38 10,4 C 10,0 C 8,3 C 93 % 15 lf 1008,1 hPa 0,2 l/m 0 min 2 min 0 W/m 64,9 km/h (8 Bft) 91,30 %
29.11.2015 19:40 10,4 C 10,0 C 8,3 C 93 % 15 lf 1008,1 hPa 0,0 l/m 0 min 2 min 0 W/m 58,6 km/h (7 Bft) 93,62 %
29.11.2015 19:42 10,4 C 10,0 C 8,3 C 93 % 15 lf 1008,1 hPa 0,0 l/m 0 min 2 min 0 W/m 50,2 km/h (7 Bft) 91,49 %
29.11.2015 19:44 10,4 C 10,0 C 8,3 C 93 % 15 lf 1008,0 hPa 0,0 l/m 0 min 2 min 0 W/m 46,0 km/h (6 Bft) 91,49 %
29.11.2015 19:46 10,4 C 10,0 C 8,3 C 93 % 15 lf 1007,9 hPa 0,0 l/m 0 min 2 min 0 W/m 62,8 km/h (8 Bft) 95,74 %
29.11.2015 19:48 10,4 C 10,0 C 8,3 C 93 % 15 lf 1008,0 hPa 0,2 l/m 0 min 2 min 0 W/m 35,6 km/h (5 Bft) 93,62 %
29.11.2015 19:50 10,4 C 10,0 C 8,3 C 93 % 15 lf 1008,0 hPa 0,0 l/m 0 min 2 min 0 W/m 39,7 km/h (6 Bft) 95,65 %
29.11.2015 19:52 10,4 C 10,0 C 8,3 C 93 % 15 lf 1008,0 hPa 0,0 l/m 0 min 2 min 0 W/m 54,4 km/h (7 Bft) 95,74 %
29.11.2015 19:54 10,3 C 10,0 C 8,3 C 94 % 15 lf 1008,0 hPa 0,0 l/m 0 min 2 min 0 W/m 71,1 km/h (8 Bft) 93,62 %
29.11.2015 19:56 10,3 C 10,0 C 8,3 C 94 % 15 lf 1008,0 hPa 0,0 l/m 0 min 2 min 0 W/m 52,3 km/h (7 Bft) 97,87 %
29.11.2015 19:58 10,3 C 10,0 C 8,3 C 94 % 15 lf 1008,0 hPa 0,0 l/m 0 min 2 min 0 W/m 43,9 km/h (6 Bft) 97,87 %
29.11.2015 20:00 10,3 C 10,0 C 8,3 C 94 % 15 lf 1007,9 hPa 0,0 l/m 0 min 2 min 0 W/m 37,7 km/h (5 Bft) 95,74 %
29.11.2015 20:02 10,3 C 10,0 C 8,3 C 94 % 15 lf 1007,9 hPa 0,0 l/m 0 min 2 min 0 W/m 39,7 km/h (6 Bft) 95,65 %
29.11.2015 20:04 10,3 C 10,0 C 8,3 C 94 % 15 lf 1007,9 hPa 0,0 l/m 0 min 2 min 0 W/m 48,1 km/h (6 Bft) 97,87 %
29.11.2015 20:06 10,3 C 10,0 C 8,3 C 94 % 15 lf 1008,0 hPa 0,0 l/m 0 min 2 min 0 W/m 41,8 km/h (6 Bft) 97,87 %
29.11.2015 20:08 10,3 C 10,0 C 8,3 C 94 % 15 lf 1007,9 hPa 0,0 l/m 0 min 2 min 0 W/m 48,1 km/h (6 Bft) 100,00 %
29.11.2015 20:10 10,3 C 9,4 C 8,3 C 94 % 15 lf 1007,9 hPa 0,2 l/m 0 min 2 min 0 W/m 41,8 km/h (6 Bft) 97,87 %
29.11.2015 20:12 10,3 C 10,0 C 8,3 C 94 % 15 lf 1007,7 hPa 0,0 l/m 0 min 2 min 0 W/m 60,7 km/h (7 Bft) 97,87 %
29.11.2015 20:14 10,3 C 10,0 C 8,3 C 94 % 15 lf 1007,9 hPa 0,0 l/m 0 min 2 min 0 W/m 56,5 km/h (7 Bft) 100,00 %
29.11.2015 20:16 10,3 C 10,0 C 8,3 C 94 % 15 lf 1007,9 hPa 0,0 l/m 0 min 2 min 0 W/m 54,4 km/h (7 Bft) 97,87 %
29.11.2015 20:18 10,3 C 9,4 C 8,3 C 94 % 15 lf 1008,0 hPa 0,0 l/m 0 min 2 min 0 W/m 60,7 km/h (7 Bft) 97,87 %
29.11.2015 20:20 10,3 C 9,4 C 8,3 C 94 % 15 lf 1007,7 hPa 0,2 l/m 0 min 2 min 0 W/m 50,2 km/h (7 Bft) 97,87 %
29.11.2015 20:22 10,3 C 9,4 C 8,3 C 94 % 15 lf 1007,7 hPa 0,0 l/m 0 min 2 min 0 W/m 56,5 km/h (7 Bft) 97,87 %
29.11.2015 20:24 10,3 C 9,4 C 8,3 C 94 % 15 lf 1007,6 hPa 0,0 l/m 0 min 2 min 0 W/m 46,0 km/h (6 Bft) 97,87 %
29.11.2015 20:26 10,3 C 9,4 C 8,3 C 94 % 15 lf 1007,7 hPa 0,0 l/m 0 min 2 min 0 W/m 58,6 km/h (7 Bft) 95,65 %
29.11.2015 20:28 10,3 C 10,0 C 8,3 C 94 % 15 lf 1007,5 hPa 0,0 l/m 0 min 2 min 0 W/m 58,6 km/h (7 Bft) 95,74 %
29.11.2015 20:30 10,3 C 9,4 C 8,3 C 94 % 15 lf 1007,7 hPa 0,0 l/m 0 min 2 min 0 W/m 46,0 km/h (6 Bft) 97,87 %
29.11.2015 20:32 10,3 C 10,0 C 8,3 C 94 % 15 lf 1007,8 hPa 0,2 l/m 0 min 2 min 0 W/m 62,8 km/h (8 Bft) 100,00 %
29.11.2015 20:34 10,3 C 10,0 C 8,3 C 94 % 15 lf 1007,7 hPa 0,0 l/m 0 min 2 min 0 W/m 46,0 km/h (6 Bft) 95,74 %
29.11.2015 20:36 10,3 C 10,0 C 8,3 C 94 % 15 lf 1007,7 hPa 0,0 l/m 0 min 2 min 0 W/m 54,4 km/h (7 Bft) 93,62 %
29.11.2015 20:38 10,3 C 10,0 C 8,3 C 94 % 15 lf 1007,7 hPa 0,0 l/m 0 min 2 min 0 W/m 69,0 km/h (8 Bft) 97,83 %
29.11.2015 20:40 10,3 C 10,0 C 8,3 C 94 % 15 lf 1007,7 hPa 0,0 l/m 0 min 2 min 0 W/m 71,1 km/h (8 Bft) 97,87 %
29.11.2015 20:42 10,3 C 10,0 C 8,3 C 94 % 15 lf 1007,8 hPa 0,0 l/m 0 min 2 min 0 W/m 62,8 km/h (8 Bft) 97,87 %
29.11.2015 20:44 10,4 C 10,0 C 8,3 C 94 % 15 lf 1007,7 hPa 0,0 l/m 0 min 2 min 0 W/m 50,2 km/h (7 Bft) 91,49 %
29.11.2015 20:46 10,4 C 10,0 C 8,3 C 94 % 15 lf 1007,7 hPa 0,0 l/m 0 min 2 min 0 W/m 48,1 km/h (6 Bft) 97,87 %
29.11.2015 20:48 10,4 C 10,0 C 8,3 C 94 % 15 lf 1007,8 hPa 0,0 l/m 0 min 2 min 0 W/m 50,2 km/h (7 Bft) 97,87 %
29.11.2015 20:50 10,4 C 10,0 C 8,3 C 94 % 15 lf 1007,7 hPa 0,0 l/m 0 min 2 min 0 W/m 46,0 km/h (6 Bft) 93,48 %
29.11.2015 20:52 10,4 C 10,0 C 8,3 C 94 % 15 lf 1007,7 hPa 0,0 l/m 0 min 0 min 0 W/m 52,3 km/h (7 Bft) 97,87 %
29.11.2015 20:54 10,4 C 10,0 C 8,3 C 94 % 15 lf 1007,7 hPa 0,0 l/m 0 min 2 min 0 W/m 58,6 km/h (7 Bft) 93,62 %
29.11.2015 20:56 10,4 C 10,0 C 8,3 C 94 % 15 lf 1007,7 hPa 0,0 l/m 0 min 0 min 0 W/m 52,3 km/h (7 Bft) 97,87 %
29.11.2015 20:58 10,4 C 10,0 C 8,3 C 94 % 15 lf 1007,8 hPa 0,0 l/m 0 min 0 min 0 W/m 58,6 km/h (7 Bft) 97,87 %
29.11.2015 21:00 10,4 C 10,0 C 8,3 C 94 % 15 lf 1007,8 hPa 0,0 l/m 0 min 0 min 0 W/m 62,8 km/h (8 Bft) 97,87 %
29.11.2015 21:02 10,4 C 10,0 C 8,3 C 94 % 15 lf 1007,8 hPa 0,0 l/m 0 min 0 min 0 W/m 54,4 km/h (7 Bft) 95,65 %
29.11.2015 21:04 10,4 C 10,0 C 8,3 C 94 % 15 lf 1008,0 hPa 0,0 l/m 0 min 0 min 0 W/m 50,2 km/h (7 Bft) 97,87 %
29.11.2015 21:06 10,4 C 10,0 C 8,3 C 94 % 15 lf 1007,8 hPa 0,0 l/m 0 min 0 min 0 W/m 58,6 km/h (7 Bft) 97,87 %
29.11.2015 21:08 10,4 C 10,0 C 8,3 C 94 % 15 lf 1007,5 hPa 0,0 l/m 0 min 0 min 0 W/m 69,0 km/h (8 Bft) 100,00 %
29.11.2015 21:10 10,5 C 10,0 C 8,9 C 94 % 15 lf 1007,7 hPa 0,0 l/m 0 min 0 min 0 W/m 64,9 km/h (8 Bft) 97,87 %
29.11.2015 21:12 10,5 C 10,0 C 8,9 C 94 % 15 lf 1007,8 hPa 0,0 l/m 0 min 0 min 0 W/m 54,4 km/h (7 Bft) 97,83 %
29.11.2015 21:14 10,5 C 10,0 C 8,9 C 94 % 15 lf 1007,8 hPa 0,0 l/m 0 min 2 min 0 W/m 60,7 km/h (7 Bft) 100,00 %
29.11.2015 21:16 10,5 C 10,0 C 8,9 C 94 % 15 lf 1007,8 hPa 0,0 l/m 0 min 2 min 0 W/m 54,4 km/h (7 Bft) 100,00 %
29.11.2015 21:18 10,5 C 10,0 C 8,9 C 94 % 15 lf 1007,7 hPa 0,0 l/m 0 min 2 min 0 W/m 71,1 km/h (8 Bft) 97,87 %
29.11.2015 21:20 10,6 C 10,0 C 8,9 C 94 % 15 lf 1007,7 hPa 0,0 l/m 0 min 2 min 0 W/m 48,1 km/h (6 Bft) 97,87 %
29.11.2015 21:22 10,6 C 10,0 C 8,9 C 94 % 15 lf 1007,7 hPa 0,0 l/m 0 min 2 min 0 W/m 71,1 km/h (8 Bft) 100,00 %
29.11.2015 21:24 10,6 C 10,0 C 8,9 C 94 % 15 lf 1007,7 hPa 0,0 l/m 0 min 2 min 0 W/m 69,0 km/h (8 Bft) 100,00 %
29.11.2015 21:26 10,6 C 10,0 C 8,9 C 93 % 15 lf 1007,8 hPa 0,0 l/m 0 min 0 min 0 W/m 62,8 km/h (8 Bft) 95,74 %
29.11.2015 21:28 10,6 C 10,0 C 8,9 C 93 % 15 lf 1008,0 hPa 0,0 l/m 0 min 0 min 0 W/m 73,2 km/h (8 Bft) 97,87 %
29.11.2015 21:30 10,6 C 10,0 C 8,9 C 93 % 15 lf 1007,9 hPa 0,0 l/m 0 min 2 min 0 W/m 48,1 km/h (6 Bft) 95,74 %
29.11.2015 21:32 10,6 C 10,0 C 8,9 C 93 % 15 lf 1008,1 hPa 0,0 l/m 0 min 0 min 0 W/m 58,6 km/h (7 Bft) 97,87 %
29.11.2015 21:34 10,7 C 10,0 C 8,9 C 93 % 15 lf 1007,9 hPa 0,0 l/m 0 min 0 min 0 W/m 58,6 km/h (7 Bft) 100,00 %
29.11.2015 21:36 10,7 C 10,0 C 8,9 C 93 % 15 lf 1008,0 hPa 0,0 l/m 0 min 0 min 0 W/m 56,5 km/h (7 Bft) 100,00 %
29.11.2015 21:38 10,7 C 10,0 C 8,9 C 93 % 15 lf 1007,8 hPa 0,0 l/m 0 min 0 min 0 W/m 54,4 km/h (7 Bft) 93,62 %
29.11.2015 21:40 10,7 C 10,0 C 8,9 C 93 % 15 lf 1007,9 hPa 0,0 l/m 0 min 0 min 0 W/m 69,0 km/h (8 Bft) 97,87 %
29.11.2015 21:42 10,7 C 10,0 C 8,9 C 93 % 15 lf 1007,8 hPa 0,0 l/m 0 min 0 min 0 W/m 71,1 km/h (8 Bft) 97,87 %
29.11.2015 21:44 10,7 C 10,0 C 8,9 C 93 % 15 lf 1007,8 hPa 0,0 l/m 0 min 0 min 0 W/m 60,7 km/h (7 Bft) 91,49 %
29.11.2015 21:46 10,7 C 10,0 C 8,9 C 93 % 15 lf 1007,9 hPa 0,0 l/m 0 min 2 min 0 W/m 52,3 km/h (7 Bft) 100,00 %
29.11.2015 21:48 10,7 C 10,0 C 8,9 C 93 % 15 lf 1007,9 hPa 0,0 l/m 0 min 2 min 0 W/m 60,7 km/h (7 Bft) 95,65 %
29.11.2015 21:50 10,7 C 10,0 C 8,9 C 93 % 15 lf 1008,1 hPa 0,0 l/m 0 min 2 min 0 W/m 52,3 km/h (7 Bft) 100,00 %
29.11.2015 21:52 10,7 C 10,0 C 8,9 C 93 % 15 lf 1008,1 hPa 0,0 l/m 0 min 2 min 0 W/m 66,9 km/h (8 Bft) 93,62 %
29.11.2015 21:54 10,7 C 10,0 C 8,9 C 93 % 15 lf 1008,0 hPa 0,0 l/m 0 min 2 min 0 W/m 60,7 km/h (7 Bft) 97,87 %
29.11.2015 21:56 10,7 C 10,0 C 8,9 C 93 % 15 lf 1008,2 hPa 0,0 l/m 0 min 2 min 0 W/m 56,5 km/h (7 Bft) 95,74 %
29.11.2015 21:58 10,8 C 10,0 C 8,9 C 93 % 15 lf 1008,2 hPa 0,0 l/m 0 min 2 min 0 W/m 52,3 km/h (7 Bft) 97,83 %
29.11.2015 22:00 10,8 C 10,0 C 8,9 C 93 % 15 lf 1008,0 hPa 0,0 l/m 0 min 2 min 0 W/m 48,1 km/h (6 Bft) 93,62 %
29.11.2015 22:02 10,7 C 10,0 C 8,9 C 93 % 15 lf 1008,1 hPa 0,0 l/m 0 min 2 min 0 W/m 50,2 km/h (7 Bft) 93,62 %
29.11.2015 22:04 10,7 C 10,0 C 8,9 C 93 % 15 lf 1008,0 hPa 0,0 l/m 0 min 2 min 0 W/m 58,6 km/h (7 Bft) 97,87 %
29.11.2015 22:06 10,7 C 10,0 C 8,9 C 93 % 15 lf 1008,2 hPa 0,0 l/m 0 min 2 min 0 W/m 77,4 km/h (9 Bft) 97,87 %
29.11.2015 22:08 10,8 C 10,6 C 8,9 C 93 % 15 lf 1008,3 hPa 0,0 l/m 0 min 2 min 0 W/m 48,1 km/h (6 Bft) 91,49 %
29.11.2015 22:10 10,8 C 10,6 C 8,9 C 92 % 15 lf 1008,2 hPa 0,0 l/m 0 min 2 min 0 W/m 60,7 km/h (7 Bft) 95,74 %
29.11.2015 22:12 10,8 C 10,6 C 8,9 C 92 % 15 lf 1008,3 hPa 0,0 l/m 0 min 2 min 0 W/m 52,3 km/h (7 Bft) 95,65 %
29.11.2015 22:14 10,8 C 10,6 C 8,9 C 92 % 15 lf 1008,3 hPa 0,0 l/m 0 min 2 min 0 W/m 58,6 km/h (7 Bft) 89,36 %
29.11.2015 22:16 10,8 C 10,6 C 8,9 C 92 % 15 lf 1008,4 hPa 0,0 l/m 0 min 2 min 0 W/m 54,4 km/h (7 Bft) 93,62 %
29.11.2015 22:18 10,8 C 11,1 C 8,9 C 92 % 15 lf 1008,1 hPa 0,0 l/m 0 min 2 min 0 W/m 54,4 km/h (7 Bft) 93,62 %
29.11.2015 22:20 10,9 C 11,1 C 8,9 C 92 % 15 lf 1008,2 hPa 0,0 l/m 0 min 2 min 0 W/m 48,1 km/h (6 Bft) 91,49 %
29.11.2015 22:22 10,9 C 11,1 C 8,9 C 92 % 15 lf 1008,3 hPa 0,0 l/m 0 min 2 min 0 W/m 66,9 km/h (8 Bft) 93,48 %
29.11.2015 22:24 10,9 C 11,1 C 8,9 C 92 % 15 lf 1008,3 hPa 0,0 l/m 0 min 2 min 0 W/m 62,8 km/h (8 Bft) 89,36 %
29.11.2015 22:26 10,9 C 10,6 C 8,9 C 92 % 15 lf 1008,4 hPa 0,0 l/m 0 min 2 min 0 W/m 56,5 km/h (7 Bft) 91,49 %
29.11.2015 22:28 10,9 C 10,6 C 8,9 C 92 % 15 lf 1008,4 hPa 0,0 l/m 0 min 2 min 0 W/m 52,3 km/h (7 Bft) 87,23 %
29.11.2015 22:30 10,9 C 10,6 C 8,9 C 92 % 15 lf 1008,3 hPa 0,0 l/m 0 min 2 min 0 W/m 62,8 km/h (8 Bft) 91,49 %
29.11.2015 22:32 10,9 C 10,6 C 8,9 C 92 % 15 lf 1008,5 hPa 0,2 l/m 0 min 2 min 0 W/m 52,3 km/h (7 Bft) 89,36 %
29.11.2015 22:34 10,9 C 10,6 C 8,9 C 92 % 15 lf 1008,5 hPa 0,0 l/m 0 min 2 min 0 W/m 54,4 km/h (7 Bft) 91,30 %
29.11.2015 22:36 10,9 C 10,6 C 8,9 C 92 % 15 lf 1008,6 hPa 0,0 l/m 0 min 2 min 0 W/m 66,9 km/h (8 Bft) 91,49 %
29.11.2015 22:38 10,9 C 10,6 C 8,9 C 92 % 15 lf 1008,6 hPa 0,0 l/m 0 min 2 min 0 W/m 73,2 km/h (8 Bft) 89,36 %
29.11.2015 22:40 10,9 C 10,0 C 8,9 C 92 % 15 lf 1008,5 hPa 0,0 l/m 0 min 2 min 0 W/m 52,3 km/h (7 Bft) 91,49 %
29.11.2015 22:42 10,8 C 10,0 C 8,9 C 93 % 15 lf 1008,6 hPa 0,0 l/m 0 min 2 min 0 W/m 41,8 km/h (6 Bft) 93,62 %
29.11.2015 22:44 10,8 C 10,0 C 8,9 C 93 % 15 lf 1008,6 hPa 0,0 l/m 0 min 2 min 0 W/m 48,1 km/h (6 Bft) 91,49 %
29.11.2015 22:46 10,8 C 10,0 C 8,9 C 93 % 15 lf 1008,8 hPa 0,2 l/m 0 min 2 min 0 W/m 48,1 km/h (6 Bft) 91,30 %
29.11.2015 22:48 10,8 C 10,0 C 8,9 C 93 % 15 lf 1008,9 hPa 0,0 l/m 0 min 2 min 0 W/m 37,7 km/h (5 Bft) 89,36 %
29.11.2015 22:50 10,8 C 10,0 C 8,9 C 93 % 15 lf 1008,9 hPa 0,0 l/m 0 min 2 min 0 W/m 60,7 km/h (7 Bft) 93,62 %
29.11.2015 22:52 10,8 C 10,0 C 8,9 C 93 % 15 lf 1008,9 hPa 0,0 l/m 0 min 2 min 0 W/m 58,6 km/h (7 Bft) 87,23 %
29.11.2015 22:54 10,8 C 10,0 C 8,9 C 93 % 15 lf 1008,8 hPa 0,0 l/m 0 min 2 min 0 W/m 52,3 km/h (7 Bft) 93,62 %
29.11.2015 22:56 10,8 C 10,0 C 8,9 C 93 % 15 lf 1009,0 hPa 0,0 l/m 0 min 2 min 0 W/m 48,1 km/h (6 Bft) 89,36 %
29.11.2015 22:58 10,8 C 10,0 C 8,9 C 93 % 15 lf 1008,9 hPa 0,0 l/m 0 min 2 min 0 W/m 58,6 km/h (7 Bft) 93,48 %
29.11.2015 23:00 10,7 C 10,0 C 8,9 C 93 % 15 lf 1009,0 hPa 0,0 l/m 0 min 2 min 0 W/m 43,9 km/h (6 Bft) 93,62 %
29.11.2015 23:02 10,7 C 10,0 C 8,9 C 93 % 15 lf 1009,1 hPa 0,2 l/m 0 min 2 min 0 W/m 50,2 km/h (7 Bft) 93,62 %
29.11.2015 23:04 10,7 C 10,0 C 8,9 C 93 % 15 lf 1009,1 hPa 0,0 l/m 0 min 2 min 0 W/m 54,4 km/h (7 Bft) 97,87 %
29.11.2015 23:06 10,7 C 10,0 C 8,9 C 93 % 15 lf 1009,1 hPa 0,0 l/m 0 min 2 min 0 W/m 46,0 km/h (6 Bft) 97,87 %
29.11.2015 23:08 10,7 C 10,0 C 8,9 C 94 % 15 lf 1009,2 hPa 0,0 l/m 0 min 2 min 0 W/m 50,2 km/h (7 Bft) 95,74 %
29.11.2015 23:10 10,7 C 10,0 C 8,9 C 94 % 15 lf 1009,2 hPa 0,2 l/m 0 min 2 min 0 W/m 52,3 km/h (7 Bft) 91,30 %
29.11.2015 23:12 10,7 C 10,0 C 8,9 C 94 % 15 lf 1009,2 hPa 0,0 l/m 0 min 2 min 0 W/m 64,9 km/h (8 Bft) 95,74 %
29.11.2015 23:14 10,7 C 10,0 C 8,9 C 94 % 15 lf 1009,3 hPa 0,4 l/m 0 min 2 min 0 W/m 64,9 km/h (8 Bft) 97,87 %
29.11.2015 23:16 10,7 C 10,0 C 8,9 C 94 % 15 lf 1009,7 hPa 0,2 l/m 0 min 2 min 0 W/m 66,9 km/h (8 Bft) 97,87 %
29.11.2015 23:18 10,7 C 10,0 C 8,9 C 94 % 15 lf 1009,9 hPa 0,0 l/m 0 min 2 min 0 W/m 79,5 km/h (9 Bft) 93,62 %
29.11.2015 23:20 10,6 C 10,0 C 8,3 C 94 % 15 lf 1009,7 hPa 0,0 l/m 0 min 2 min 0 W/m 66,9 km/h (8 Bft) 93,48 %
29.11.2015 23:22 10,6 C 10,0 C 8,3 C 94 % 15 lf 1010,0 hPa 0,0 l/m 0 min 2 min 0 W/m 48,1 km/h (6 Bft) 97,87 %
29.11.2015 23:24 10,6 C 9,4 C 8,3 C 94 % 15 lf 1010,0 hPa 0,0 l/m 0 min 2 min 0 W/m 37,7 km/h (5 Bft) 100,00 %
29.11.2015 23:26 10,5 C 9,4 C 8,3 C 94 % 15 lf 1010,0 hPa 0,2 l/m 0 min 2 min 0 W/m 50,2 km/h (7 Bft) 100,00 %
29.11.2015 23:28 10,4 C 9,4 C 8,3 C 94 % 15 lf 1010,0 hPa 0,0 l/m 0 min 2 min 0 W/m 41,8 km/h (6 Bft) 100,00 %
29.11.2015 23:30 10,4 C 9,4 C 8,3 C 94 % 15 lf 1010,1 hPa 0,2 l/m 0 min 2 min 0 W/m 33,5 km/h (5 Bft) 100,00 %
29.11.2015 23:32 10,3 C 9,4 C 8,3 C 94 % 15 lf 1010,2 hPa 0,0 l/m 0 min 2 min 0 W/m 50,2 km/h (7 Bft) 95,65 %
29.11.2015 23:34 10,1 C 8,9 C 7,8 C 94 % 15 lf 1010,3 hPa 0,0 l/m 0 min 2 min 0 W/m 41,8 km/h (6 Bft) 100,00 %
29.11.2015 23:36 10,1 C 8,9 C 7,8 C 94 % 15 lf 1010,3 hPa 0,2 l/m 0 min 2 min 0 W/m 48,1 km/h (6 Bft) 100,00 %
29.11.2015 23:38 9,8 C 8,3 C 7,2 C 94 % 15 lf 1010,4 hPa 0,2 l/m 0 min 2 min 0 W/m 41,8 km/h (6 Bft) 100,00 %
29.11.2015 23:40 9,7 C 8,3 C 7,2 C 93 % 15 lf 1010,4 hPa 0,0 l/m 0 min 2 min 0 W/m 35,6 km/h (5 Bft) 95,74 %
29.11.2015 23:42 9,5 C 8,3 C 7,2 C 93 % 15 lf 1010,5 hPa 0,2 l/m 0 min 2 min 0 W/m 39,7 km/h (6 Bft) 100,00 %
29.11.2015 23:44 9,4 C 8,3 C 7,2 C 93 % 15 lf 1010,7 hPa 0,0 l/m 0 min 2 min 0 W/m 31,4 km/h (5 Bft) 97,83 %
29.11.2015 23:46 9,3 C 8,3 C 7,2 C 94 % 15 lf 1010,7 hPa 0,2 l/m 0 min 2 min 0 W/m 29,3 km/h (5 Bft) 97,87 %
29.11.2015 23:48 9,3 C 8,3 C 7,2 C 93 % 15 lf 1010,8 hPa 0,2 l/m 0 min 2 min 0 W/m 37,7 km/h (5 Bft) 97,87 %
29.11.2015 23:50 9,2 C 8,3 C 7,2 C 94 % 15 lf 1010,8 hPa 0,2 l/m 0 min 2 min 0 W/m 39,7 km/h (6 Bft) 100,00 %
29.11.2015 23:52 9,2 C 8,3 C 7,2 C 94 % 15 lf 1011,0 hPa 0,0 l/m 0 min 2 min 0 W/m 37,7 km/h (5 Bft) 97,87 %
29.11.2015 23:54 9,1 C 8,3 C 7,2 C 94 % 15 lf 1010,9 hPa 0,2 l/m 0 min 2 min 0 W/m 35,6 km/h (5 Bft) 100,00 %
29.11.2015 23:56 9,1 C 8,3 C 7,2 C 94 % 15 lf 1011,0 hPa 0,0 l/m 0 min 2 min 0 W/m 29,3 km/h (5 Bft) 100,00 %
29.11.2015 23:58 9,1 C 8,3 C 7,2 C 94 % 15 lf 1010,8 hPa 0,2 l/m 0 min 2 min 0 W/m 31,4 km/h (5 Bft) 100,00 %
_ Min-Zeit 01:32 00:00 00:00 00:00 06:36 14:58 - - - - 00:02 00:02
Minimum _ 6,2 C 5,6 C 4,4 C 88 % 0 lf 1007,4 hPa - - - - 16,7 km/h (3 Bft) 8,33 %
_ Max-Zeit 18:42 11:04 11:34 02:34 00:00 23:52 23:14 10:56 00:00 11:02 23:18 00:48
Maximum _ 11,2 C 11,7 C 9,4 C 95 % 15 lf 1011,0 hPa 0,4 l/m 2 min 2 min 145 W/m 79,5 km/h
W-SW (9 Bft)
100,00 %
Durchschnitt _ 9,2 C 8,8 C 7,2 C 92 % 12 lf 1008,4 hPa #10,2 l/m #20 min. #16:40 h 47 W/m 41,9 km/h (6 Bft) 95,73 %
© 2015 W. Hausmann